GFSWCAN_prec_precacc24_159.txt.gz
Total_Precipitation_Accumulation
0.12 0.10 0.10 0.14 0.25 0.44 0.78 0.54 0.22 0.14 0.17 0.20 0.45 0.54 0.46 0.38 0.64 0.79 0.50 0.32 0.68 0.96 0.23 0.03 0.03 0.08 0.07 0.05 0.12 0.10 0.14 0.17 0.21 0.17 0.11 0.08 0.03 0.01 0.02 0.01 0.01 0.01 0.01 0.03 0.05 0.11 0.03 0.00 0.00 0.01 0.03 0.00 0.00 0.00
0.12 0.09 0.10 0.11 0.20 0.36 0.55 0.86 0.28 0.18 0.14 0.17 0.28 0.52 0.64 0.45 0.57 0.91 0.78 0.31 0.43 0.69 0.53 0.14 0.04 0.01 0.08 0.06 0.09 0.09 0.08 0.05 0.12 0.13 0.04 0.01 0.01 0.01 0.01 0.01 0.01 0.03 0.02 0.01 0.02 0.01 0.01 0.00 0.00 0.00 0.00 0.00 0.00 0.00
0.12 0.09 0.09 0.08 0.15 0.38 0.46 0.88 0.42 0.23 0.14 0.14 0.23 0.44 0.74 0.72 0.59 0.79 0.77 0.50 0.49 0.56 0.40 0.32 0.29 0.07 0.02 0.01 0.01 0.08 0.08 0.07 0.08 0.11 0.24 0.19 0.11 0.03 0.03 0.02 0.01 0.00 0.00 0.01 0.03 0.00 0.00 0.00 0.00 0.01 0.01 0.01 0.00 0.00
0.10 0.09 0.10 0.10 0.13 0.38 0.60 0.79 0.56 0.29 0.19 0.16 0.23 0.45 0.64 0.81 0.70 0.73 0.73 0.45 0.49 0.38 0.33 0.22 0.28 0.27 0.13 0.02 0.01 0.01 0.05 0.06 0.11 0.10 0.17 0.19 0.10 0.03 0.02 0.02 0.03 0.01 0.03 0.04 0.04 0.01 0.01 0.01 0.01 0.01 0.01 0.01 0.00 0.00
0.10 0.10 0.11 0.10 0.13 0.41 0.74 0.86 0.62 0.35 0.26 0.19 0.25 0.48 0.59 0.81 0.75 0.76 0.69 0.30 0.36 0.54 0.45 0.16 0.22 0.18 0.20 0.11 0.02 0.01 0.03 0.10 0.16 0.20 0.17 0.10 0.04 0.06 0.04 0.03 0.01 0.00 0.02 0.08 0.04 0.02 0.03 0.01 0.01 0.02 0.02 0.01 0.01 0.01
0.09 0.08 0.09 0.07 0.09 0.47 0.74 0.96 0.60 0.40 0.30 0.22 0.32 0.46 0.48 0.71 0.87 1.02 1.52 0.80 0.32 0.66 0.62 0.37 0.21 0.19 0.16 0.08 0.02 0.01 0.02 0.05 0.15 0.18 0.13 0.07 0.01 0.07 0.11 0.02 0.00 0.00 0.00 0.00 0.00 0.00 0.00 0.00 0.00 0.00 0.00 0.00 0.00 0.00
0.07 0.05 0.06 0.10 0.20 0.66 0.88 0.91 0.57 0.42 0.31 0.30 0.38 0.43 0.54 0.87 0.90 0.83 0.68 0.41 0.22 0.49 0.73 0.41 0.20 0.10 0.13 0.05 0.02 0.02 0.03 0.05 0.08 0.14 0.12 0.05 0.03 0.10 0.12 0.02 0.00 0.00 0.00 0.00 0.00 0.00 0.00 0.00 0.00 0.00 0.00 0.00 0.00 0.00
0.04 0.04 0.07 0.13 0.43 0.83 0.90 0.72 0.58 0.44 0.43 0.54 0.59 0.57 0.67 0.74 0.86 0.64 0.20 0.11 0.20 0.31 0.47 0.38 0.21 0.08 0.06 0.06 0.06 0.05 0.08 0.13 0.14 0.12 0.07 0.04 0.04 0.14 0.13 0.00 0.00 0.00 0.00 0.00 0.00 0.00 0.00 0.00 0.00 0.00 0.00 0.00 0.00 0.00
0.06 0.10 0.12 0.38 0.84 0.92 0.65 0.57 0.61 0.56 0.61 0.49 0.48 0.58 0.81 1.00 1.03 0.69 0.32 0.43 0.34 0.21 0.28 0.15 0.11 0.06 0.03 0.05 0.08 0.16 0.24 0.28 0.13 0.11 0.04 0.04 0.05 0.05 0.01 0.00 0.00 0.00 0.00 0.00 0.00 0.00 0.00 0.00 0.00 0.00 0.00 0.00 0.00 0.00
0.44 0.72 0.86 0.97 0.94 0.76 0.66 0.67 0.63 0.52 0.37 0.39 0.65 0.88 1.19 0.91 0.41 0.51 1.12 1.49 1.20 0.33 0.09 0.04 0.01 0.08 0.06 0.08 0.11 0.12 0.15 0.13 0.16 0.05 0.06 0.10 0.02 0.00 0.00 0.00 0.00 0.00 0.00 0.00 0.00 0.00 0.00 0.00 0.00 0.01 0.00 0.00 0.00 0.00
0.50 0.66 0.84 0.95 1.06 1.04 0.79 0.57 0.46 0.44 0.58 0.92 1.10 0.64 0.60 0.45 0.40 0.70 0.89 0.72 0.57 0.33 0.04 0.01 0.00 0.05 0.03 0.13 0.15 0.15 0.19 0.15 0.10 0.03 0.07 0.04 0.00 0.00 0.00 0.00 0.00 0.00 0.00 0.00 0.00 0.00 0.00 0.00 0.00 0.00 0.00 0.00 0.01 0.01
0.63 0.66 0.69 0.69 0.60 0.46 0.32 0.33 0.37 0.64 0.87 0.58 0.22 0.27 0.34 0.39 0.42 0.34 0.30 0.25 0.22 0.08 0.01 0.00 0.00 0.02 0.06 0.16 0.26 0.25 0.17 0.16 0.12 0.13 0.16 0.04 0.00 0.00 0.01 0.05 0.05 0.02 0.02 0.01 0.02 0.01 0.00 0.00 0.00 0.00 0.00 0.00 0.01 0.00
0.45 0.41 0.33 0.28 0.24 0.21 0.21 0.27 0.32 0.27 0.15 0.19 0.21 0.23 0.25 0.25 0.26 0.18 0.12 0.11 0.14 0.07 0.02 0.01 0.02 0.07 0.11 0.09 0.19 0.31 0.27 0.18 0.09 0.09 0.04 0.00 0.00 0.02 0.07 0.08 0.03 0.00 0.00 0.00 0.00 0.00 0.00 0.00 0.00 0.00 0.00 0.01 0.01 0.01
0.17 0.15 0.17 0.23 0.32 0.29 0.25 0.22 0.10 0.07 0.07 0.16 0.18 0.13 0.12 0.10 0.07 0.05 0.02 0.03 0.02 0.03 0.02 0.04 0.08 0.15 0.14 0.13 0.10 0.10 0.09 0.09 0.10 0.06 0.00 0.03 0.09 0.09 0.03 0.00 0.00 0.00 0.00 0.00 0.00 0.00 0.00 0.00 0.00 0.00 0.01 0.01 0.01 0.02
0.08 0.09 0.21 0.27 0.20 0.13 0.07 0.02 0.01 0.02 0.10 0.11 0.11 0.03 0.02 0.03 0.03 0.02 0.04 0.08 0.05 0.06 0.07 0.12 0.20 0.21 0.23 0.16 0.03 0.04 0.06 0.03 0.01 0.00 0.03 0.07 0.04 0.01 0.01 0.00 0.00 0.00 0.00 0.00 0.00 0.00 0.00 0.00 0.00 0.00 0.00 0.00 0.00 0.01
0.05 0.09 0.08 0.05 0.04 0.03 0.01 0.02 0.06 0.12 0.16 0.11 0.07 0.06 0.04 0.02 0.03 0.02 0.04 0.06 0.07 0.09 0.15 0.15 0.32 0.33 0.36 0.21 0.07 0.01 0.01 0.01 0.03 0.07 0.10 0.07 0.03 0.01 0.00 0.00 0.00 0.00 0.00 0.01 0.00 0.00 0.00 0.00 0.00 0.00 0.02 0.03 0.02 0.01
0.03 0.04 0.03 0.02 0.02 0.03 0.03 0.10 0.17 0.25 0.20 0.10 0.10 0.07 0.09 0.08 0.03 0.01 0.02 0.04 0.04 0.11 0.12 0.07 0.12 0.17 0.14 0.12 0.05 0.01 0.01 0.02 0.05 0.04 0.01 0.00 0.00 0.00 0.00 0.00 0.00 0.00 0.00 0.00 0.00 0.00 0.00 0.00 0.01 0.01 0.02 0.04 0.03 0.03
0.03 0.03 0.01 0.02 0.03 0.08 0.11 0.12 0.15 0.11 0.13 0.14 0.15 0.10 0.08 0.07 0.04 0.01 0.01 0.03 0.03 0.04 0.10 0.07 0.04 0.04 0.06 0.06 0.07 0.08 0.12 0.07 0.03 0.02 0.00 0.00 0.00 0.00 0.00 0.00 0.00 0.00 0.00 0.00 0.00 0.00 0.00 0.00 0.01 0.02 0.03 0.02 0.02 0.02
0.01 0.01 0.01 0.01 0.01 0.04 0.10 0.10 0.14 0.21 0.12 0.13 0.14 0.11 0.10 0.10 0.05 0.01 0.01 0.02 0.03 0.04 0.06 0.06 0.08 0.03 0.02 0.03 0.06 0.04 0.01 0.01 0.01 0.01 0.01 0.01 0.00 0.00 0.00 0.00 0.00 0.00 0.00 0.00 0.00 0.00 0.00 0.00 0.00 0.00 0.00 0.00 0.00 0.00
0.00 0.00 0.00 0.00 0.01 0.08 0.12 0.17 0.09 0.12 0.19 0.25 0.17 0.13 0.15 0.12 0.06 0.03 0.05 0.05 0.10 0.14 0.12 0.05 0.01 0.01 0.02 0.01 0.00 0.00 0.00 0.00 0.01 0.02 0.03 0.03 0.02 0.01 0.01 0.01 0.01 0.01 0.01 0.01 0.00 0.01 0.00 0.01 0.00 0.00 0.00 0.00 0.00 0.00
0.02 0.02 0.01 0.02 0.07 0.16 0.20 0.25 0.21 0.15 0.25 0.26 0.20 0.13 0.20 0.11 0.15 0.16 0.20 0.16 0.19 0.16 0.05 0.01 0.02 0.01 0.00 0.00 0.00 0.00 0.00 0.00 0.01 0.01 0.01 0.02 0.02 0.02 0.04 0.04 0.03 0.02 0.01 0.01 0.01 0.01 0.01 0.00 0.00 0.00 0.00 0.01 0.01 0.01
0.01 0.02 0.06 0.07 0.12 0.10 0.10 0.10 0.17 0.17 0.16 0.21 0.18 0.12 0.20 0.21 0.20 0.19 0.26 0.26 0.13 0.05 0.02 0.01 0.00 0.00 0.00 0.00 0.00 0.00 0.00 0.00 0.00 0.01 0.01 0.01 0.03 0.04 0.05 0.03 0.02 0.02 0.01 0.00 0.00 0.01 0.01 0.00 0.00 0.01 0.02 0.03 0.02 0.02
0.01 0.04 0.09 0.06 0.07 0.04 0.03 0.04 0.10 0.11 0.22 0.18 0.14 0.15 0.13 0.15 0.13 0.10 0.24 0.16 0.07 0.03 0.00 0.00 0.00 0.00 0.00 0.00 0.00 0.00 0.00 0.00 0.00 0.01 0.02 0.03 0.02 0.03 0.04 0.03 0.01 0.01 0.01 0.01 0.00 0.01 0.01 0.00 0.01 0.02 0.03 0.03 0.03 0.05
0.01 0.07 0.16 0.16 0.09 0.04 0.01 0.02 0.05 0.08 0.09 0.07 0.10 0.11 0.07 0.06 0.05 0.09 0.07 0.02 0.03 0.04 0.01 0.01 0.02 0.01 0.00 0.00 0.00 0.00 0.00 0.00 0.00 0.01 0.01 0.02 0.04 0.06 0.04 0.04 0.04 0.04 0.02 0.02 0.03 0.03 0.03 0.04 0.04 0.04 0.06 0.05 0.07 0.07
0.12 0.08 0.05 0.04 0.04 0.06 0.02 0.01 0.01 0.04 0.08 0.05 0.07 0.07 0.04 0.03 0.08 0.03 0.01 0.02 0.03 0.05 0.04 0.01 0.01 0.01 0.02 0.04 0.04 0.04 0.02 0.01 0.01 0.01 0.02 0.01 0.03 0.04 0.06 0.05 0.05 0.05 0.04 0.09 0.08 0.06 0.09 0.09 0.09 0.08 0.09 0.09 0.10 0.10
0.03 0.01 0.01 0.02 0.02 0.02 0.01 0.02 0.03 0.04 0.03 0.06 0.08 0.06 0.04 0.07 0.07 0.02 0.02 0.06 0.06 0.04 0.04 0.02 0.01 0.01 0.02 0.04 0.06 0.06 0.04 0.01 0.00 0.00 0.02 0.02 0.02 0.02 0.02 0.02 0.02 0.02 0.03 0.05 0.05 0.08 0.07 0.09 0.09 0.10 0.11 0.12 0.11 0.09
0.01 0.01 0.01 0.00 0.00 0.01 0.01 0.01 0.01 0.01 0.02 0.03 0.04 0.05 0.08 0.10 0.04 0.02 0.08 0.09 0.05 0.03 0.03 0.03 0.02 0.02 0.01 0.01 0.02 0.04 0.02 0.01 0.00 0.01 0.00 0.01 0.01 0.01 0.02 0.01 0.01 0.00 0.00 0.01 0.02 0.02 0.03 0.05 0.06 0.07 0.08 0.10 0.09 0.07
0.00 0.00 0.01 0.01 0.01 0.01 0.02 0.02 0.02 0.02 0.02 0.02 0.01 0.02 0.04 0.03 0.02 0.03 0.05 0.03 0.02 0.01 0.02 0.04 0.05 0.03 0.00 0.00 0.01 0.01 0.02 0.01 0.01 0.01 0.01 0.02 0.02 0.01 0.00 0.01 0.00 0.00 0.01 0.01 0.01 0.01 0.02 0.02 0.03 0.04 0.06 0.06 0.08 0.08
0.00 0.00 0.00 0.00 0.01 0.01 0.02 0.02 0.02 0.02 0.02 0.02 0.01 0.01 0.01 0.01 0.02 0.02 0.02 0.02 0.01 0.01 0.02 0.04 0.07 0.07 0.06 0.04 0.04 0.03 0.03 0.01 0.01 0.01 0.02 0.03 0.02 0.02 0.01 0.01 0.02 0.01 0.01 0.01 0.02 0.01 0.01 0.01 0.02 0.03 0.03 0.04 0.06 0.06
0.01 0.00 0.01 0.00 0.00 0.01 0.03 0.02 0.04 0.04 0.02 0.01 0.01 0.01 0.01 0.01 0.01 0.01 0.01 0.01 0.02 0.02 0.03 0.04 0.03 0.05 0.05 0.05 0.07 0.08 0.07 0.05 0.03 0.03 0.03 0.03 0.01 0.01 0.01 0.02 0.02 0.03 0.03 0.02 0.03 0.05 0.04 0.04 0.05 0.05 0.04 0.05 0.05 0.06
0.00 0.01 0.01 0.01 0.01 0.02 0.03 0.02 0.01 0.01 0.01 0.01 0.01 0.02 0.01 0.01 0.01 0.01 0.01 0.01 0.01 0.02 0.03 0.03 0.03 0.02 0.03 0.03 0.04 0.04 0.05 0.03 0.03 0.02 0.02 0.02 0.01 0.01 0.02 0.02 0.02 0.02 0.02 0.02 0.02 0.03 0.03 0.03 0.03 0.03 0.03 0.03 0.03 0.03
0.01 0.01 0.01 0.01 0.01 0.02 0.01 0.01 0.01 0.01 0.01 0.02 0.01 0.01 0.02 0.02 0.01 0.00 0.01 0.00 0.01 0.02 0.02 0.03 0.03 0.03 0.01 0.02 0.02 0.02 0.02 0.01 0.01 0.01 0.02 0.01 0.01 0.02 0.02 0.03 0.03 0.03 0.02 0.03 0.04 0.04 0.03 0.03 0.03 0.03 0.03 0.03 0.03 0.04
0.01 0.01 0.01 0.02 0.01 0.01 0.02 0.01 0.01 0.01 0.01 0.02 0.02 0.03 0.03 0.03 0.01 0.01 0.01 0.01 0.02 0.03 0.03 0.04 0.05 0.05 0.03 0.03 0.03 0.03 0.03 0.03 0.03 0.03 0.05 0.05 0.03 0.04 0.05 0.06 0.06 0.05 0.05 0.05 0.05 0.05 0.06 0.05 0.05 0.05 0.05 0.04 0.04 0.04

GFSWCAN_prec_precacc24_162.txt.gz
Total_Precipitation_Accumulation
0.21 0.15 0.11 0.13 0.23 0.43 0.79 0.57 0.26 0.17 0.19 0.21 0.46 0.54 0.46 0.37 0.62 0.79 0.51 0.33 0.61 0.79 0.22 0.03 0.04 0.09 0.09 0.08 0.16 0.12 0.20 0.23 0.26 0.22 0.16 0.12 0.05 0.01 0.02 0.01 0.01 0.01 0.02 0.08 0.16 0.15 0.04 0.00 0.00 0.01 0.03 0.00 0.00 0.00
0.22 0.24 0.21 0.14 0.20 0.35 0.55 0.88 0.32 0.22 0.17 0.18 0.30 0.53 0.64 0.44 0.56 0.92 0.78 0.31 0.46 0.62 0.45 0.13 0.04 0.01 0.08 0.07 0.13 0.19 0.18 0.10 0.15 0.24 0.25 0.17 0.09 0.02 0.01 0.01 0.01 0.04 0.02 0.02 0.02 0.02 0.01 0.00 0.00 0.00 0.00 0.00 0.00 0.00
0.20 0.18 0.17 0.14 0.16 0.38 0.46 0.90 0.45 0.25 0.16 0.15 0.24 0.44 0.73 0.68 0.56 0.72 0.72 0.51 0.53 0.56 0.35 0.31 0.28 0.07 0.02 0.01 0.02 0.11 0.13 0.15 0.12 0.08 0.20 0.19 0.12 0.03 0.03 0.02 0.01 0.00 0.00 0.02 0.02 0.00 0.00 0.00 0.00 0.01 0.01 0.01 0.00 0.00
0.13 0.17 0.17 0.12 0.12 0.38 0.61 0.81 0.60 0.33 0.22 0.16 0.23 0.44 0.62 0.78 0.65 0.64 0.59 0.46 0.52 0.41 0.34 0.22 0.28 0.26 0.12 0.02 0.01 0.02 0.05 0.07 0.14 0.14 0.17 0.13 0.08 0.03 0.02 0.02 0.03 0.01 0.03 0.03 0.02 0.00 0.01 0.01 0.01 0.01 0.01 0.01 0.00 0.00
0.13 0.13 0.15 0.10 0.13 0.40 0.73 0.88 0.65 0.37 0.27 0.20 0.24 0.47 0.57 0.77 0.72 0.64 0.53 0.31 0.38 0.58 0.48 0.17 0.23 0.18 0.20 0.12 0.02 0.01 0.04 0.14 0.22 0.27 0.19 0.07 0.03 0.05 0.03 0.02 0.01 0.00 0.01 0.05 0.02 0.01 0.03 0.01 0.01 0.02 0.02 0.02 0.02 0.02
0.12 0.11 0.10 0.07 0.10 0.47 0.75 0.98 0.62 0.41 0.31 0.22 0.31 0.45 0.47 0.69 0.82 0.83 1.32 0.76 0.33 0.68 0.69 0.38 0.20 0.21 0.18 0.19 0.08 0.06 0.08 0.12 0.21 0.22 0.12 0.05 0.01 0.05 0.06 0.01 0.00 0.00 0.00 0.00 0.00 0.00 0.00 0.00 0.00 0.00 0.00 0.01 0.01 0.01
0.09 0.06 0.06 0.11 0.22 0.68 0.91 0.92 0.56 0.43 0.32 0.30 0.38 0.45 0.56 0.87 0.80 0.76 0.64 0.42 0.23 0.49 0.76 0.45 0.25 0.16 0.20 0.29 0.24 0.15 0.08 0.11 0.15 0.12 0.05 0.03 0.03 0.08 0.07 0.01 0.00 0.00 0.00 0.00 0.00 0.00 0.00 0.00 0.00 0.00 0.00 0.00 0.00 0.00
0.07 0.05 0.07 0.13 0.43 0.84 0.92 0.72 0.59 0.44 0.42 0.54 0.58 0.60 0.72 0.79 0.84 0.61 0.20 0.15 0.31 0.42 0.49 0.39 0.36 0.28 0.16 0.31 0.27 0.14 0.11 0.13 0.08 0.03 0.01 0.02 0.03 0.10 0.08 0.00 0.00 0.00 0.00 0.00 0.00 0.00 0.00 0.00 0.00 0.00 0.00 0.00 0.00 0.00
0.07 0.10 0.13 0.38 0.83 0.91 0.63 0.55 0.59 0.55 0.60 0.49 0.48 0.59 0.79 0.93 0.94 0.64 0.31 0.40 0.37 0.56 0.48 0.20 0.20 0.30 0.10 0.14 0.10 0.14 0.20 0.20 0.08 0.05 0.02 0.03 0.04 0.05 0.01 0.00 0.00 0.00 0.00 0.00 0.00 0.00 0.00 0.00 0.00 0.00 0.00 0.00 0.00 0.00
0.59 0.76 0.76 0.78 0.76 0.62 0.54 0.58 0.55 0.47 0.32 0.37 0.57 0.69 0.95 0.79 0.39 0.53 1.10 1.28 0.89 0.47 0.25 0.16 0.06 0.23 0.06 0.06 0.09 0.08 0.08 0.08 0.13 0.05 0.06 0.10 0.02 0.00 0.00 0.00 0.00 0.00 0.00 0.00 0.00 0.00 0.00 0.00 0.00 0.01 0.00 0.00 0.00 0.00
0.46 0.62 0.77 0.72 0.74 0.76 0.59 0.39 0.33 0.31 0.40 0.55 0.76 0.45 0.57 0.45 0.39 0.73 1.02 0.67 0.43 0.30 0.06 0.02 0.02 0.09 0.05 0.08 0.13 0.13 0.16 0.12 0.08 0.03 0.07 0.04 0.00 0.00 0.00 0.00 0.00 0.00 0.00 0.00 0.00 0.00 0.00 0.00 0.00 0.00 0.00 0.00 0.01 0.01
0.44 0.44 0.46 0.46 0.41 0.31 0.23 0.22 0.24 0.32 0.42 0.30 0.17 0.30 0.53 0.49 0.46 0.45 0.37 0.20 0.09 0.06 0.01 0.00 0.00 0.04 0.07 0.10 0.22 0.21 0.15 0.16 0.12 0.13 0.16 0.04 0.00 0.00 0.01 0.05 0.05 0.02 0.02 0.01 0.02 0.01 0.00 0.00 0.00 0.00 0.00 0.00 0.01 0.00
0.28 0.25 0.22 0.23 0.22 0.18 0.13 0.14 0.13 0.10 0.11 0.30 0.39 0.31 0.31 0.20 0.27 0.15 0.11 0.07 0.04 0.07 0.02 0.01 0.02 0.06 0.11 0.08 0.17 0.29 0.26 0.18 0.09 0.09 0.04 0.00 0.00 0.02 0.07 0.08 0.03 0.00 0.00 0.00 0.00 0.00 0.00 0.00 0.00 0.00 0.00 0.01 0.01 0.01
0.09 0.08 0.11 0.21 0.32 0.25 0.18 0.16 0.08 0.11 0.18 0.27 0.21 0.13 0.10 0.07 0.06 0.03 0.02 0.03 0.02 0.03 0.02 0.04 0.08 0.14 0.14 0.13 0.09 0.09 0.09 0.09 0.10 0.06 0.00 0.03 0.09 0.09 0.03 0.00 0.00 0.00 0.00 0.00 0.00 0.00 0.00 0.00 0.00 0.00 0.01 0.01 0.01 0.02
0.06 0.09 0.20 0.27 0.21 0.16 0.10 0.05 0.08 0.09 0.13 0.11 0.11 0.03 0.01 0.03 0.03 0.02 0.04 0.08 0.05 0.06 0.07 0.12 0.20 0.21 0.23 0.15 0.03 0.04 0.05 0.03 0.01 0.00 0.03 0.07 0.04 0.02 0.01 0.01 0.01 0.01 0.01 0.00 0.00 0.00 0.00 0.00 0.00 0.00 0.00 0.00 0.00 0.01
0.05 0.09 0.08 0.05 0.03 0.03 0.02 0.03 0.08 0.12 0.17 0.12 0.07 0.05 0.03 0.02 0.03 0.02 0.04 0.06 0.07 0.09 0.15 0.15 0.31 0.31 0.34 0.21 0.07 0.01 0.01 0.01 0.03 0.07 0.10 0.07 0.03 0.01 0.00 0.00 0.00 0.00 0.00 0.01 0.00 0.00 0.00 0.00 0.00 0.00 0.02 0.03 0.03 0.02
0.03 0.04 0.03 0.02 0.02 0.03 0.03 0.10 0.17 0.25 0.20 0.10 0.10 0.06 0.08 0.08 0.03 0.01 0.02 0.04 0.04 0.11 0.12 0.07 0.12 0.17 0.14 0.13 0.05 0.01 0.01 0.02 0.05 0.04 0.01 0.00 0.00 0.00 0.00 0.00 0.00 0.00 0.00 0.00 0.00 0.00 0.00 0.00 0.01 0.01 0.02 0.05 0.07 0.11
0.03 0.03 0.01 0.02 0.03 0.08 0.11 0.12 0.15 0.11 0.12 0.13 0.14 0.09 0.08 0.07 0.04 0.01 0.01 0.03 0.03 0.04 0.10 0.07 0.04 0.04 0.06 0.06 0.07 0.08 0.12 0.06 0.03 0.02 0.00 0.00 0.00 0.00 0.00 0.00 0.00 0.00 0.00 0.00 0.01 0.01 0.01 0.01 0.01 0.02 0.03 0.04 0.04 0.04
0.01 0.01 0.01 0.01 0.01 0.04 0.10 0.10 0.14 0.20 0.08 0.08 0.09 0.08 0.06 0.05 0.03 0.01 0.01 0.02 0.03 0.04 0.06 0.06 0.08 0.03 0.02 0.03 0.06 0.04 0.01 0.01 0.01 0.01 0.01 0.01 0.00 0.00 0.00 0.00 0.00 0.00 0.00 0.00 0.00 0.00 0.00 0.00 0.00 0.00 0.00 0.00 0.01 0.01
0.00 0.00 0.00 0.00 0.01 0.08 0.12 0.17 0.09 0.11 0.15 0.18 0.11 0.10 0.11 0.08 0.04 0.03 0.05 0.05 0.10 0.14 0.12 0.05 0.01 0.01 0.02 0.01 0.00 0.00 0.00 0.00 0.01 0.02 0.03 0.03 0.02 0.01 0.01 0.01 0.01 0.01 0.02 0.02 0.02 0.02 0.01 0.01 0.01 0.00 0.00 0.00 0.00 0.01
0.02 0.02 0.01 0.02 0.07 0.16 0.20 0.25 0.21 0.14 0.21 0.18 0.15 0.12 0.18 0.11 0.15 0.16 0.21 0.16 0.21 0.16 0.05 0.01 0.01 0.01 0.00 0.00 0.00 0.00 0.00 0.00 0.01 0.01 0.01 0.02 0.02 0.02 0.04 0.04 0.03 0.03 0.02 0.02 0.02 0.02 0.01 0.01 0.00 0.00 0.01 0.02 0.02 0.01
0.01 0.02 0.06 0.07 0.12 0.10 0.10 0.10 0.17 0.17 0.15 0.20 0.17 0.12 0.20 0.21 0.21 0.20 0.28 0.29 0.14 0.04 0.01 0.00 0.00 0.00 0.00 0.00 0.00 0.00 0.00 0.00 0.00 0.01 0.01 0.01 0.03 0.04 0.05 0.03 0.02 0.02 0.01 0.02 0.01 0.01 0.01 0.00 0.00 0.01 0.02 0.03 0.02 0.02
0.01 0.04 0.09 0.06 0.07 0.04 0.03 0.04 0.10 0.11 0.22 0.18 0.14 0.15 0.13 0.15 0.13 0.11 0.27 0.16 0.05 0.01 0.00 0.00 0.00 0.00 0.00 0.00 0.00 0.00 0.00 0.00 0.00 0.01 0.02 0.03 0.02 0.03 0.04 0.03 0.02 0.02 0.01 0.01 0.00 0.01 0.01 0.00 0.01 0.03 0.02 0.04 0.03 0.05
0.01 0.07 0.16 0.16 0.09 0.04 0.01 0.02 0.05 0.08 0.09 0.07 0.10 0.11 0.07 0.06 0.05 0.10 0.07 0.02 0.02 0.04 0.03 0.04 0.04 0.03 0.01 0.00 0.00 0.00 0.00 0.00 0.01 0.02 0.02 0.03 0.05 0.07 0.04 0.04 0.04 0.05 0.02 0.04 0.04 0.03 0.03 0.04 0.04 0.05 0.06 0.05 0.07 0.07
0.12 0.08 0.05 0.04 0.05 0.06 0.02 0.01 0.01 0.04 0.08 0.06 0.07 0.07 0.04 0.03 0.09 0.03 0.01 0.03 0.09 0.11 0.07 0.04 0.05 0.05 0.07 0.08 0.10 0.12 0.11 0.09 0.09 0.06 0.05 0.03 0.03 0.04 0.06 0.06 0.06 0.05 0.06 0.11 0.11 0.09 0.11 0.11 0.10 0.09 0.10 0.09 0.11 0.12
0.03 0.01 0.02 0.02 0.02 0.03 0.01 0.02 0.03 0.04 0.03 0.06 0.08 0.06 0.04 0.08 0.07 0.02 0.03 0.08 0.12 0.05 0.03 0.02 0.01 0.01 0.03 0.06 0.09 0.11 0.10 0.07 0.05 0.03 0.02 0.02 0.02 0.03 0.02 0.02 0.02 0.02 0.03 0.06 0.07 0.10 0.11 0.13 0.13 0.13 0.14 0.14 0.14 0.12
0.01 0.01 0.01 0.01 0.01 0.01 0.01 0.01 0.01 0.01 0.02 0.03 0.04 0.05 0.09 0.11 0.03 0.02 0.09 0.13 0.07 0.03 0.02 0.02 0.01 0.02 0.01 0.02 0.03 0.06 0.04 0.03 0.02 0.03 0.01 0.01 0.01 0.01 0.02 0.02 0.01 0.00 0.00 0.01 0.01 0.02 0.04 0.06 0.07 0.09 0.10 0.12 0.11 0.10
0.01 0.00 0.01 0.01 0.01 0.01 0.02 0.02 0.01 0.01 0.02 0.01 0.01 0.02 0.04 0.03 0.02 0.02 0.04 0.02 0.02 0.01 0.02 0.03 0.04 0.02 0.00 0.00 0.02 0.02 0.03 0.02 0.01 0.01 0.01 0.03 0.03 0.01 0.01 0.01 0.00 0.00 0.01 0.01 0.00 0.01 0.02 0.02 0.03 0.05 0.07 0.08 0.12 0.12
0.00 0.00 0.00 0.00 0.01 0.01 0.02 0.02 0.01 0.02 0.01 0.01 0.01 0.01 0.01 0.00 0.01 0.01 0.01 0.01 0.01 0.00 0.02 0.03 0.06 0.06 0.06 0.04 0.04 0.04 0.03 0.02 0.01 0.02 0.02 0.03 0.02 0.01 0.01 0.01 0.01 0.01 0.01 0.02 0.03 0.01 0.01 0.01 0.02 0.04 0.05 0.07 0.09 0.10
0.01 0.00 0.01 0.00 0.00 0.00 0.02 0.02 0.03 0.03 0.01 0.01 0.01 0.01 0.01 0.01 0.01 0.01 0.01 0.01 0.01 0.02 0.02 0.03 0.03 0.05 0.05 0.06 0.07 0.08 0.08 0.06 0.04 0.04 0.04 0.04 0.01 0.01 0.01 0.02 0.02 0.03 0.03 0.03 0.03 0.05 0.04 0.04 0.06 0.06 0.07 0.08 0.08 0.08
0.00 0.01 0.01 0.01 0.01 0.02 0.02 0.01 0.01 0.01 0.01 0.01 0.01 0.01 0.01 0.01 0.00 0.00 0.00 0.01 0.01 0.02 0.03 0.03 0.03 0.02 0.03 0.04 0.04 0.05 0.05 0.04 0.03 0.03 0.03 0.02 0.01 0.01 0.01 0.01 0.02 0.02 0.02 0.02 0.03 0.03 0.03 0.03 0.03 0.04 0.05 0.05 0.05 0.04
0.01 0.01 0.01 0.01 0.01 0.02 0.01 0.01 0.01 0.01 0.01 0.01 0.01 0.01 0.02 0.02 0.01 0.00 0.01 0.01 0.01 0.02 0.02 0.03 0.03 0.03 0.02 0.03 0.03 0.02 0.02 0.02 0.01 0.01 0.02 0.02 0.01 0.02 0.02 0.03 0.03 0.03 0.02 0.03 0.05 0.05 0.04 0.04 0.04 0.05 0.05 0.05 0.04 0.05
0.01 0.01 0.02 0.02 0.01 0.01 0.02 0.01 0.01 0.01 0.01 0.01 0.02 0.02 0.03 0.03 0.01 0.01 0.01 0.01 0.02 0.04 0.04 0.04 0.05 0.06 0.04 0.03 0.03 0.03 0.03 0.04 0.03 0.03 0.04 0.04 0.03 0.04 0.05 0.06 0.07 0.06 0.05 0.05 0.06 0.06 0.07 0.07 0.06 0.06 0.06 0.06 0.06 0.05

GFSWCAN_prec_precacc24_165.txt.gz
Total_Precipitation_Accumulation
0.24 0.21 0.17 0.16 0.21 0.32 0.66 0.52 0.25 0.18 0.20 0.23 0.51 0.62 0.47 0.37 0.58 0.72 0.50 0.33 0.60 0.69 0.18 0.03 0.04 0.09 0.09 0.13 0.28 0.24 0.29 0.28 0.32 0.40 0.30 0.14 0.06 0.02 0.03 0.01 0.01 0.01 0.04 0.10 0.21 0.25 0.09 0.00 0.01 0.02 0.03 0.00 0.00 0.00
0.23 0.26 0.29 0.23 0.25 0.33 0.52 0.86 0.32 0.23 0.19 0.22 0.33 0.56 0.66 0.45 0.55 0.86 0.66 0.31 0.47 0.62 0.39 0.12 0.04 0.01 0.08 0.07 0.13 0.20 0.21 0.16 0.32 0.47 0.42 0.28 0.17 0.08 0.03 0.01 0.01 0.04 0.03 0.03 0.04 0.04 0.02 0.01 0.01 0.00 0.00 0.00 0.00 0.00
0.20 0.18 0.20 0.25 0.32 0.44 0.44 0.88 0.48 0.31 0.21 0.21 0.30 0.48 0.75 0.69 0.56 0.71 0.59 0.44 0.54 0.57 0.33 0.29 0.27 0.07 0.02 0.01 0.02 0.11 0.14 0.16 0.19 0.20 0.23 0.22 0.09 0.03 0.04 0.02 0.01 0.00 0.00 0.02 0.03 0.01 0.02 0.02 0.00 0.01 0.01 0.01 0.00 0.00
0.13 0.16 0.18 0.18 0.24 0.53 0.66 0.81 0.61 0.37 0.28 0.22 0.31 0.52 0.68 0.80 0.65 0.65 0.44 0.36 0.51 0.42 0.36 0.22 0.28 0.26 0.11 0.02 0.01 0.02 0.05 0.07 0.16 0.27 0.47 0.39 0.15 0.03 0.02 0.02 0.03 0.01 0.03 0.03 0.02 0.01 0.01 0.01 0.01 0.01 0.01 0.01 0.00 0.00
0.15 0.14 0.18 0.17 0.19 0.49 0.80 0.88 0.66 0.41 0.33 0.24 0.29 0.53 0.61 0.78 0.73 0.63 0.39 0.19 0.36 0.59 0.48 0.18 0.23 0.18 0.20 0.12 0.02 0.01 0.04 0.14 0.23 0.33 0.34 0.19 0.07 0.06 0.02 0.01 0.01 0.00 0.01 0.05 0.02 0.01 0.03 0.01 0.01 0.02 0.02 0.02 0.02 0.03
0.13 0.12 0.15 0.14 0.15 0.50 0.76 0.99 0.64 0.44 0.34 0.25 0.33 0.47 0.49 0.69 0.84 0.75 0.95 0.50 0.25 0.65 0.75 0.41 0.20 0.21 0.18 0.19 0.08 0.06 0.07 0.12 0.21 0.22 0.15 0.09 0.03 0.05 0.03 0.01 0.00 0.00 0.00 0.00 0.00 0.00 0.00 0.00 0.00 0.00 0.00 0.01 0.02 0.03
0.09 0.07 0.11 0.15 0.22 0.68 0.91 0.94 0.58 0.45 0.33 0.30 0.38 0.45 0.56 0.89 0.78 0.56 0.47 0.35 0.18 0.48 0.85 0.49 0.25 0.16 0.21 0.30 0.26 0.16 0.09 0.12 0.17 0.18 0.10 0.06 0.03 0.05 0.03 0.01 0.00 0.00 0.00 0.00 0.00 0.00 0.00 0.00 0.00 0.00 0.00 0.00 0.00 0.00
0.08 0.06 0.07 0.13 0.44 0.85 0.94 0.72 0.57 0.43 0.42 0.55 0.59 0.60 0.74 0.79 0.78 0.34 0.11 0.20 0.40 0.50 0.55 0.42 0.36 0.29 0.20 0.35 0.34 0.24 0.19 0.17 0.13 0.10 0.09 0.06 0.04 0.06 0.04 0.00 0.00 0.00 0.00 0.00 0.00 0.00 0.00 0.00 0.00 0.00 0.00 0.00 0.00 0.00
0.07 0.10 0.13 0.39 0.84 0.92 0.64 0.53 0.56 0.53 0.60 0.50 0.47 0.55 0.71 0.78 0.73 0.33 0.21 0.38 0.41 0.78 0.63 0.23 0.20 0.32 0.31 0.37 0.36 0.28 0.31 0.28 0.12 0.06 0.02 0.03 0.02 0.03 0.00 0.00 0.00 0.00 0.00 0.00 0.00 0.00 0.00 0.00 0.00 0.00 0.00 0.00 0.00 0.00
0.59 0.76 0.77 0.78 0.76 0.64 0.55 0.58 0.54 0.46 0.32 0.32 0.43 0.56 0.78 0.67 0.35 0.34 0.89 1.23 0.86 0.48 0.33 0.21 0.09 0.30 0.27 0.32 0.28 0.19 0.13 0.12 0.10 0.04 0.04 0.05 0.01 0.00 0.00 0.00 0.00 0.00 0.00 0.00 0.00 0.00 0.00 0.00 0.00 0.01 0.00 0.00 0.00 0.00
0.47 0.62 0.73 0.70 0.73 0.75 0.59 0.40 0.34 0.30 0.32 0.35 0.49 0.40 0.54 0.44 0.36 0.62 0.96 0.68 0.42 0.22 0.07 0.03 0.07 0.22 0.33 0.31 0.17 0.12 0.10 0.09 0.07 0.03 0.06 0.04 0.00 0.00 0.00 0.00 0.00 0.00 0.00 0.00 0.00 0.00 0.00 0.00 0.01 0.01 0.01 0.00 0.01 0.01
0.16 0.22 0.26 0.31 0.32 0.27 0.21 0.21 0.22 0.23 0.20 0.16 0.14 0.28 0.53 0.59 0.46 0.44 0.38 0.24 0.10 0.05 0.01 0.00 0.00 0.05 0.14 0.21 0.16 0.13 0.11 0.12 0.10 0.13 0.16 0.04 0.00 0.00 0.01 0.05 0.05 0.02 0.02 0.01 0.02 0.01 0.00 0.00 0.00 0.00 0.00 0.00 0.01 0.00
0.14 0.13 0.12 0.12 0.08 0.07 0.08 0.11 0.08 0.04 0.08 0.28 0.36 0.33 0.38 0.34 0.33 0.16 0.12 0.08 0.03 0.06 0.02 0.02 0.02 0.06 0.12 0.08 0.09 0.11 0.19 0.16 0.09 0.09 0.04 0.00 0.00 0.02 0.07 0.08 0.03 0.00 0.00 0.00 0.00 0.00 0.00 0.00 0.00 0.00 0.00 0.01 0.01 0.01
0.08 0.07 0.08 0.09 0.07 0.07 0.10 0.10 0.05 0.10 0.18 0.28 0.22 0.18 0.15 0.09 0.06 0.03 0.02 0.03 0.02 0.03 0.02 0.04 0.08 0.14 0.14 0.13 0.08 0.07 0.06 0.08 0.10 0.05 0.00 0.03 0.09 0.09 0.03 0.00 0.00 0.00 0.00 0.00 0.00 0.00 0.00 0.00 0.00 0.00 0.01 0.01 0.01 0.02
0.04 0.05 0.10 0.09 0.06 0.07 0.06 0.04 0.08 0.09 0.15 0.14 0.08 0.03 0.01 0.03 0.03 0.02 0.04 0.08 0.05 0.06 0.07 0.12 0.19 0.21 0.23 0.15 0.03 0.04 0.05 0.03 0.01 0.00 0.03 0.07 0.04 0.02 0.01 0.01 0.01 0.01 0.02 0.01 0.01 0.00 0.00 0.00 0.00 0.00 0.00 0.00 0.00 0.01
0.04 0.08 0.06 0.03 0.02 0.01 0.01 0.03 0.09 0.14 0.19 0.11 0.06 0.05 0.03 0.02 0.03 0.02 0.04 0.06 0.07 0.09 0.15 0.15 0.31 0.31 0.34 0.21 0.07 0.01 0.01 0.01 0.03 0.07 0.10 0.07 0.03 0.01 0.00 0.00 0.00 0.00 0.00 0.01 0.00 0.00 0.00 0.00 0.00 0.00 0.02 0.03 0.03 0.02
0.03 0.03 0.02 0.02 0.02 0.03 0.03 0.11 0.20 0.29 0.14 0.06 0.09 0.06 0.08 0.08 0.03 0.01 0.02 0.04 0.04 0.11 0.12 0.07 0.12 0.17 0.14 0.13 0.05 0.01 0.01 0.02 0.05 0.04 0.01 0.00 0.00 0.00 0.00 0.00 0.00 0.00 0.00 0.00 0.00 0.00 0.00 0.00 0.01 0.01 0.02 0.05 0.07 0.11
0.03 0.03 0.01 0.02 0.03 0.08 0.12 0.12 0.13 0.10 0.08 0.10 0.12 0.07 0.07 0.07 0.04 0.01 0.01 0.03 0.03 0.04 0.10 0.07 0.04 0.04 0.06 0.06 0.07 0.08 0.12 0.06 0.03 0.02 0.00 0.00 0.00 0.00 0.00 0.00 0.00 0.00 0.00 0.00 0.01 0.01 0.01 0.01 0.01 0.02 0.03 0.04 0.04 0.05
0.01 0.01 0.01 0.01 0.01 0.03 0.08 0.08 0.12 0.17 0.06 0.06 0.07 0.06 0.05 0.04 0.03 0.01 0.01 0.02 0.02 0.03 0.06 0.06 0.08 0.03 0.02 0.03 0.06 0.04 0.01 0.01 0.01 0.01 0.00 0.01 0.00 0.00 0.00 0.00 0.00 0.00 0.00 0.00 0.00 0.01 0.01 0.01 0.01 0.00 0.00 0.01 0.01 0.02
0.00 0.00 0.00 0.00 0.00 0.08 0.11 0.16 0.08 0.09 0.12 0.15 0.08 0.08 0.09 0.05 0.02 0.02 0.04 0.04 0.08 0.12 0.10 0.05 0.01 0.01 0.02 0.01 0.00 0.00 0.00 0.00 0.00 0.01 0.02 0.03 0.02 0.01 0.01 0.01 0.01 0.01 0.02 0.02 0.02 0.02 0.01 0.01 0.01 0.01 0.01 0.01 0.01 0.01
0.02 0.02 0.01 0.02 0.07 0.16 0.20 0.25 0.19 0.11 0.15 0.10 0.08 0.10 0.15 0.08 0.12 0.15 0.17 0.14 0.21 0.14 0.04 0.00 0.00 0.00 0.00 0.00 0.00 0.00 0.00 0.00 0.01 0.01 0.01 0.02 0.01 0.02 0.04 0.04 0.03 0.03 0.02 0.02 0.03 0.02 0.01 0.01 0.01 0.01 0.02 0.03 0.02 0.02
0.01 0.02 0.06 0.07 0.12 0.10 0.10 0.10 0.17 0.17 0.10 0.12 0.15 0.10 0.16 0.16 0.16 0.20 0.29 0.31 0.15 0.04 0.01 0.00 0.00 0.00 0.00 0.00 0.00 0.00 0.00 0.00 0.00 0.01 0.01 0.01 0.03 0.03 0.05 0.03 0.02 0.01 0.01 0.02 0.02 0.01 0.01 0.01 0.00 0.01 0.03 0.04 0.02 0.03
0.01 0.04 0.09 0.06 0.07 0.04 0.03 0.04 0.10 0.10 0.19 0.16 0.12 0.12 0.11 0.14 0.12 0.11 0.28 0.16 0.05 0.01 0.01 0.02 0.02 0.02 0.01 0.00 0.00 0.00 0.00 0.00 0.00 0.01 0.01 0.02 0.02 0.03 0.03 0.03 0.02 0.02 0.01 0.02 0.01 0.01 0.01 0.00 0.01 0.03 0.03 0.04 0.04 0.06
0.01 0.07 0.16 0.16 0.09 0.04 0.01 0.02 0.05 0.08 0.09 0.07 0.10 0.11 0.07 0.06 0.06 0.12 0.08 0.02 0.05 0.04 0.04 0.06 0.07 0.06 0.03 0.02 0.02 0.01 0.00 0.00 0.01 0.02 0.03 0.04 0.06 0.07 0.05 0.05 0.05 0.05 0.03 0.06 0.06 0.04 0.03 0.04 0.04 0.05 0.06 0.05 0.07 0.07
0.12 0.08 0.05 0.04 0.05 0.06 0.02 0.01 0.01 0.04 0.08 0.06 0.07 0.07 0.04 0.03 0.09 0.04 0.01 0.05 0.13 0.14 0.07 0.04 0.05 0.06 0.08 0.09 0.12 0.13 0.13 0.11 0.12 0.11 0.09 0.07 0.07 0.05 0.06 0.06 0.07 0.06 0.08 0.14 0.14 0.13 0.15 0.14 0.13 0.11 0.11 0.10 0.11 0.11
0.03 0.01 0.01 0.01 0.02 0.03 0.01 0.02 0.03 0.04 0.04 0.06 0.08 0.06 0.04 0.09 0.08 0.02 0.03 0.12 0.17 0.06 0.02 0.01 0.01 0.01 0.03 0.06 0.09 0.11 0.11 0.10 0.10 0.06 0.04 0.04 0.06 0.05 0.03 0.02 0.02 0.03 0.04 0.08 0.10 0.14 0.15 0.18 0.18 0.18 0.17 0.16 0.16 0.15
0.01 0.01 0.01 0.01 0.01 0.01 0.01 0.01 0.01 0.01 0.02 0.03 0.04 0.05 0.09 0.11 0.04 0.03 0.14 0.20 0.10 0.02 0.01 0.01 0.00 0.01 0.01 0.02 0.03 0.06 0.05 0.04 0.03 0.04 0.02 0.02 0.03 0.03 0.02 0.02 0.02 0.01 0.00 0.01 0.02 0.04 0.06 0.08 0.11 0.13 0.15 0.17 0.16 0.14
0.00 0.01 0.02 0.01 0.01 0.01 0.02 0.02 0.01 0.01 0.01 0.01 0.01 0.02 0.04 0.03 0.02 0.03 0.04 0.02 0.01 0.01 0.01 0.02 0.01 0.01 0.00 0.00 0.02 0.02 0.04 0.04 0.02 0.01 0.01 0.04 0.04 0.02 0.01 0.01 0.00 0.00 0.01 0.02 0.01 0.01 0.02 0.03 0.05 0.08 0.11 0.12 0.16 0.17
0.00 0.00 0.00 0.00 0.01 0.01 0.02 0.02 0.01 0.01 0.00 0.00 0.01 0.01 0.00 0.00 0.00 0.01 0.01 0.00 0.00 0.00 0.01 0.02 0.04 0.05 0.06 0.04 0.04 0.04 0.05 0.05 0.04 0.03 0.03 0.04 0.02 0.01 0.00 0.01 0.01 0.01 0.01 0.02 0.03 0.01 0.01 0.01 0.02 0.04 0.06 0.09 0.12 0.13
0.01 0.01 0.02 0.01 0.00 0.00 0.01 0.01 0.02 0.02 0.01 0.01 0.01 0.00 0.00 0.00 0.00 0.00 0.00 0.00 0.01 0.02 0.02 0.02 0.03 0.05 0.06 0.06 0.07 0.08 0.08 0.08 0.08 0.07 0.05 0.04 0.01 0.00 0.01 0.01 0.02 0.03 0.03 0.03 0.03 0.05 0.04 0.04 0.06 0.06 0.07 0.09 0.10 0.09
0.02 0.03 0.04 0.02 0.01 0.01 0.02 0.01 0.01 0.01 0.01 0.01 0.01 0.01 0.01 0.01 0.01 0.01 0.00 0.01 0.01 0.02 0.02 0.03 0.03 0.02 0.04 0.04 0.05 0.05 0.06 0.05 0.05 0.05 0.04 0.03 0.02 0.01 0.01 0.01 0.01 0.02 0.02 0.02 0.03 0.03 0.03 0.04 0.04 0.04 0.06 0.05 0.06 0.05
0.03 0.04 0.04 0.03 0.02 0.02 0.01 0.01 0.01 0.01 0.01 0.01 0.01 0.01 0.02 0.02 0.02 0.01 0.02 0.01 0.01 0.02 0.02 0.03 0.04 0.04 0.05 0.06 0.06 0.04 0.04 0.03 0.02 0.02 0.02 0.02 0.02 0.02 0.03 0.04 0.03 0.03 0.02 0.03 0.05 0.05 0.04 0.04 0.05 0.05 0.05 0.06 0.05 0.06
0.01 0.02 0.03 0.05 0.02 0.01 0.02 0.01 0.01 0.01 0.01 0.01 0.01 0.02 0.03 0.03 0.02 0.03 0.02 0.01 0.03 0.05 0.05 0.05 0.06 0.07 0.04 0.04 0.03 0.03 0.03 0.04 0.05 0.04 0.04 0.04 0.03 0.04 0.06 0.07 0.07 0.06 0.05 0.05 0.06 0.07 0.07 0.07 0.07 0.07 0.07 0.07 0.07 0.07

GFSWCAN_prec_precacc24_168.txt.gz
Total_Precipitation_Accumulation
0.24 0.21 0.16 0.15 0.15 0.15 0.13 0.17 0.22 0.16 0.14 0.17 0.47 0.85 0.61 0.36 0.57 0.70 0.47 0.33 0.57 0.63 0.16 0.03 0.04 0.09 0.09 0.13 0.28 0.31 0.32 0.36 0.55 0.56 0.42 0.28 0.16 0.07 0.04 0.01 0.02 0.03 0.08 0.12 0.25 0.29 0.11 0.00 0.01 0.01 0.02 0.01 0.00 0.00
0.24 0.27 0.27 0.22 0.18 0.20 0.19 0.33 0.21 0.22 0.15 0.17 0.25 0.48 0.74 0.55 0.56 0.84 0.62 0.32 0.49 0.61 0.34 0.11 0.04 0.01 0.08 0.07 0.13 0.20 0.21 0.16 0.41 0.61 0.54 0.44 0.38 0.24 0.08 0.03 0.01 0.05 0.04 0.05 0.06 0.09 0.04 0.01 0.01 0.01 0.01 0.01 0.00 0.00
0.20 0.19 0.20 0.25 0.28 0.31 0.24 0.58 0.31 0.27 0.20 0.20 0.29 0.43 0.70 0.71 0.62 0.75 0.57 0.45 0.55 0.57 0.33 0.29 0.27 0.07 0.02 0.01 0.02 0.11 0.12 0.14 0.18 0.21 0.26 0.25 0.23 0.14 0.10 0.03 0.01 0.00 0.01 0.04 0.03 0.01 0.02 0.03 0.03 0.03 0.02 0.01 0.00 0.00
0.12 0.16 0.18 0.19 0.23 0.47 0.56 0.74 0.51 0.33 0.29 0.24 0.35 0.56 0.71 0.84 0.67 0.68 0.45 0.35 0.49 0.40 0.36 0.22 0.28 0.26 0.11 0.01 0.01 0.02 0.04 0.06 0.16 0.30 0.49 0.44 0.24 0.10 0.06 0.04 0.03 0.01 0.03 0.04 0.02 0.01 0.02 0.02 0.02 0.03 0.02 0.01 0.00 0.00
0.17 0.15 0.18 0.17 0.20 0.50 0.82 0.94 0.65 0.39 0.34 0.29 0.37 0.64 0.73 0.87 0.77 0.67 0.41 0.19 0.36 0.57 0.44 0.18 0.23 0.18 0.20 0.12 0.02 0.01 0.04 0.12 0.20 0.31 0.33 0.22 0.13 0.15 0.06 0.01 0.01 0.00 0.01 0.06 0.02 0.01 0.03 0.02 0.01 0.02 0.03 0.02 0.02 0.04
0.14 0.13 0.18 0.17 0.17 0.54 0.87 1.14 0.70 0.44 0.36 0.31 0.40 0.57 0.62 0.80 0.93 0.78 0.97 0.51 0.24 0.58 0.65 0.39 0.20 0.21 0.18 0.19 0.08 0.06 0.07 0.11 0.18 0.18 0.13 0.08 0.03 0.05 0.03 0.01 0.00 0.00 0.00 0.00 0.00 0.00 0.00 0.00 0.00 0.00 0.00 0.01 0.03 0.03
0.09 0.09 0.17 0.19 0.28 0.73 0.99 1.11 0.64 0.45 0.36 0.36 0.43 0.51 0.61 0.92 0.78 0.57 0.47 0.35 0.18 0.44 0.76 0.49 0.25 0.17 0.21 0.30 0.26 0.16 0.09 0.13 0.16 0.16 0.10 0.05 0.03 0.05 0.04 0.01 0.00 0.00 0.00 0.00 0.00 0.00 0.00 0.00 0.00 0.00 0.00 0.00 0.00 0.00
0.10 0.11 0.12 0.18 0.49 0.90 0.99 0.75 0.58 0.44 0.44 0.57 0.61 0.61 0.75 0.79 0.79 0.34 0.11 0.19 0.42 0.52 0.54 0.44 0.36 0.29 0.22 0.36 0.35 0.25 0.21 0.20 0.17 0.11 0.10 0.06 0.05 0.06 0.04 0.00 0.00 0.00 0.00 0.00 0.00 0.00 0.00 0.00 0.00 0.00 0.00 0.00 0.00 0.00
0.08 0.10 0.13 0.40 0.85 0.93 0.64 0.53 0.55 0.53 0.60 0.50 0.46 0.52 0.66 0.73 0.73 0.33 0.21 0.31 0.38 0.92 0.83 0.28 0.20 0.33 0.33 0.40 0.44 0.36 0.33 0.31 0.14 0.08 0.03 0.04 0.06 0.04 0.00 0.00 0.00 0.00 0.00 0.00 0.00 0.00 0.00 0.00 0.00 0.00 0.00 0.00 0.00 0.00
0.60 0.76 0.77 0.77 0.74 0.63 0.54 0.57 0.52 0.45 0.31 0.27 0.32 0.48 0.69 0.62 0.34 0.29 0.77 1.00 0.69 0.46 0.37 0.22 0.12 0.32 0.29 0.38 0.52 0.42 0.26 0.19 0.13 0.08 0.05 0.05 0.01 0.00 0.00 0.00 0.00 0.00 0.00 0.00 0.00 0.00 0.00 0.00 0.00 0.01 0.00 0.00 0.00 0.00
0.47 0.61 0.73 0.69 0.72 0.74 0.58 0.38 0.32 0.25 0.25 0.24 0.27 0.36 0.51 0.44 0.34 0.46 0.79 0.58 0.34 0.19 0.07 0.03 0.07 0.22 0.38 0.46 0.40 0.35 0.23 0.12 0.08 0.05 0.06 0.03 0.00 0.00 0.00 0.00 0.00 0.00 0.00 0.00 0.00 0.00 0.00 0.00 0.01 0.01 0.01 0.00 0.01 0.01
0.15 0.20 0.24 0.30 0.32 0.27 0.20 0.19 0.18 0.16 0.14 0.08 0.10 0.25 0.50 0.58 0.37 0.31 0.33 0.24 0.10 0.04 0.01 0.01 0.00 0.05 0.17 0.32 0.41 0.23 0.14 0.09 0.06 0.11 0.12 0.03 0.00 0.00 0.01 0.05 0.05 0.02 0.02 0.01 0.02 0.01 0.00 0.01 0.00 0.00 0.00 0.00 0.01 0.00
0.06 0.08 0.10 0.10 0.07 0.06 0.07 0.08 0.06 0.03 0.07 0.25 0.35 0.31 0.37 0.35 0.38 0.15 0.10 0.08 0.03 0.06 0.02 0.02 0.04 0.08 0.12 0.11 0.15 0.10 0.07 0.09 0.08 0.08 0.03 0.00 0.00 0.02 0.07 0.08 0.03 0.00 0.00 0.00 0.00 0.00 0.00 0.00 0.00 0.00 0.00 0.01 0.01 0.01
0.02 0.03 0.03 0.04 0.05 0.06 0.08 0.08 0.04 0.07 0.17 0.26 0.20 0.19 0.19 0.14 0.08 0.03 0.02 0.03 0.02 0.03 0.02 0.05 0.12 0.15 0.13 0.12 0.07 0.04 0.03 0.04 0.06 0.05 0.00 0.03 0.09 0.09 0.03 0.00 0.00 0.00 0.00 0.00 0.00 0.00 0.00 0.00 0.00 0.01 0.01 0.01 0.01 0.02
0.01 0.01 0.02 0.04 0.05 0.06 0.05 0.04 0.07 0.08 0.14 0.15 0.07 0.05 0.03 0.04 0.04 0.02 0.04 0.08 0.05 0.06 0.08 0.17 0.19 0.17 0.20 0.11 0.03 0.03 0.05 0.03 0.00 0.00 0.03 0.07 0.04 0.02 0.01 0.01 0.01 0.01 0.02 0.01 0.01 0.00 0.00 0.00 0.00 0.00 0.00 0.00 0.00 0.01
0.02 0.04 0.02 0.01 0.00 0.00 0.01 0.03 0.07 0.12 0.16 0.10 0.04 0.04 0.03 0.03 0.03 0.02 0.04 0.06 0.07 0.09 0.20 0.18 0.27 0.27 0.31 0.19 0.07 0.01 0.01 0.01 0.03 0.07 0.10 0.07 0.03 0.01 0.00 0.00 0.00 0.00 0.00 0.01 0.00 0.00 0.00 0.00 0.00 0.00 0.02 0.03 0.03 0.02
0.02 0.02 0.01 0.01 0.02 0.02 0.02 0.09 0.17 0.26 0.09 0.02 0.06 0.06 0.08 0.08 0.03 0.01 0.02 0.04 0.04 0.12 0.17 0.06 0.10 0.16 0.13 0.12 0.05 0.01 0.01 0.02 0.05 0.04 0.01 0.00 0.00 0.00 0.00 0.00 0.00 0.00 0.00 0.00 0.00 0.00 0.00 0.00 0.01 0.01 0.02 0.05 0.07 0.11
0.03 0.01 0.00 0.01 0.02 0.06 0.09 0.13 0.12 0.07 0.02 0.02 0.05 0.07 0.07 0.07 0.04 0.01 0.01 0.03 0.03 0.04 0.10 0.06 0.03 0.03 0.06 0.06 0.07 0.08 0.12 0.06 0.03 0.02 0.00 0.00 0.00 0.00 0.00 0.00 0.00 0.00 0.00 0.00 0.01 0.01 0.01 0.01 0.01 0.02 0.03 0.05 0.04 0.05
0.01 0.01 0.00 0.00 0.01 0.02 0.07 0.07 0.08 0.10 0.04 0.04 0.05 0.05 0.04 0.04 0.03 0.01 0.01 0.02 0.01 0.02 0.05 0.06 0.08 0.02 0.02 0.03 0.06 0.04 0.01 0.01 0.00 0.00 0.00 0.00 0.00 0.00 0.00 0.00 0.00 0.00 0.00 0.00 0.00 0.01 0.01 0.01 0.01 0.01 0.01 0.01 0.02 0.02
0.00 0.00 0.00 0.00 0.00 0.07 0.05 0.05 0.04 0.03 0.08 0.13 0.06 0.06 0.08 0.03 0.01 0.01 0.02 0.02 0.04 0.06 0.06 0.03 0.01 0.01 0.02 0.01 0.00 0.00 0.00 0.00 0.00 0.01 0.03 0.02 0.01 0.01 0.01 0.01 0.01 0.01 0.02 0.02 0.02 0.02 0.02 0.01 0.01 0.01 0.01 0.01 0.01 0.02
0.01 0.01 0.01 0.02 0.06 0.14 0.12 0.15 0.12 0.08 0.09 0.04 0.02 0.07 0.11 0.05 0.07 0.07 0.06 0.04 0.13 0.08 0.02 0.00 0.00 0.00 0.00 0.00 0.00 0.00 0.00 0.00 0.00 0.01 0.01 0.02 0.02 0.02 0.04 0.04 0.03 0.03 0.02 0.02 0.03 0.02 0.01 0.01 0.01 0.01 0.02 0.03 0.02 0.02
0.01 0.02 0.05 0.05 0.09 0.08 0.07 0.06 0.12 0.14 0.07 0.06 0.08 0.07 0.11 0.11 0.11 0.15 0.23 0.29 0.12 0.03 0.02 0.01 0.01 0.00 0.00 0.00 0.00 0.00 0.00 0.00 0.00 0.00 0.01 0.01 0.03 0.03 0.05 0.03 0.02 0.01 0.01 0.02 0.02 0.01 0.01 0.00 0.00 0.01 0.03 0.04 0.03 0.03
0.01 0.04 0.08 0.05 0.06 0.03 0.01 0.02 0.07 0.07 0.12 0.12 0.10 0.11 0.09 0.10 0.09 0.11 0.27 0.16 0.06 0.04 0.06 0.05 0.03 0.03 0.02 0.01 0.01 0.01 0.00 0.00 0.00 0.00 0.01 0.02 0.02 0.02 0.03 0.03 0.01 0.01 0.01 0.02 0.01 0.01 0.01 0.01 0.01 0.03 0.03 0.04 0.04 0.06
0.01 0.07 0.15 0.16 0.08 0.03 0.01 0.02 0.04 0.07 0.06 0.06 0.09 0.09 0.05 0.05 0.07 0.13 0.09 0.05 0.11 0.11 0.07 0.06 0.07 0.06 0.03 0.02 0.02 0.02 0.02 0.01 0.01 0.01 0.02 0.03 0.05 0.07 0.04 0.04 0.04 0.05 0.03 0.06 0.06 0.05 0.03 0.04 0.05 0.05 0.06 0.06 0.07 0.07
0.12 0.08 0.05 0.04 0.05 0.06 0.02 0.01 0.01 0.04 0.07 0.04 0.06 0.06 0.03 0.03 0.10 0.05 0.02 0.09 0.19 0.16 0.06 0.04 0.05 0.06 0.08 0.09 0.11 0.13 0.13 0.13 0.14 0.12 0.10 0.07 0.07 0.06 0.06 0.06 0.07 0.06 0.08 0.14 0.14 0.14 0.16 0.16 0.14 0.13 0.13 0.11 0.12 0.12
0.03 0.01 0.02 0.02 0.02 0.03 0.01 0.02 0.03 0.04 0.04 0.06 0.08 0.06 0.04 0.09 0.08 0.02 0.06 0.22 0.24 0.07 0.02 0.01 0.01 0.01 0.03 0.06 0.09 0.11 0.11 0.11 0.11 0.08 0.04 0.05 0.07 0.06 0.03 0.02 0.02 0.03 0.04 0.08 0.11 0.15 0.17 0.20 0.20 0.21 0.20 0.19 0.19 0.16
0.01 0.01 0.01 0.01 0.01 0.01 0.01 0.01 0.01 0.01 0.02 0.03 0.04 0.05 0.09 0.12 0.04 0.10 0.21 0.33 0.13 0.02 0.00 0.00 0.00 0.01 0.01 0.02 0.03 0.06 0.05 0.05 0.06 0.05 0.02 0.02 0.03 0.04 0.03 0.03 0.03 0.01 0.00 0.01 0.02 0.05 0.08 0.12 0.14 0.16 0.18 0.21 0.19 0.17
0.01 0.01 0.02 0.01 0.01 0.01 0.02 0.02 0.01 0.01 0.01 0.01 0.02 0.03 0.04 0.03 0.03 0.05 0.04 0.01 0.00 0.00 0.01 0.02 0.01 0.01 0.01 0.01 0.01 0.03 0.04 0.04 0.04 0.03 0.02 0.04 0.04 0.02 0.02 0.01 0.01 0.01 0.01 0.02 0.02 0.02 0.03 0.05 0.07 0.11 0.15 0.16 0.20 0.22
0.01 0.01 0.01 0.02 0.01 0.02 0.03 0.02 0.01 0.01 0.00 0.00 0.02 0.02 0.01 0.00 0.00 0.01 0.00 0.00 0.00 0.00 0.02 0.02 0.03 0.04 0.05 0.04 0.04 0.03 0.04 0.06 0.05 0.05 0.05 0.05 0.03 0.01 0.00 0.00 0.01 0.00 0.01 0.02 0.03 0.02 0.01 0.01 0.02 0.04 0.07 0.10 0.13 0.16
0.06 0.04 0.05 0.05 0.03 0.03 0.03 0.01 0.02 0.02 0.00 0.00 0.01 0.00 0.00 0.01 0.02 0.01 0.01 0.00 0.01 0.02 0.02 0.02 0.03 0.05 0.06 0.06 0.07 0.07 0.07 0.09 0.09 0.08 0.07 0.05 0.02 0.00 0.00 0.01 0.02 0.02 0.02 0.03 0.03 0.05 0.04 0.04 0.05 0.06 0.07 0.09 0.10 0.11
0.05 0.05 0.07 0.06 0.04 0.02 0.02 0.01 0.01 0.01 0.01 0.01 0.01 0.01 0.02 0.02 0.03 0.03 0.01 0.01 0.01 0.01 0.02 0.02 0.03 0.05 0.07 0.06 0.06 0.06 0.07 0.07 0.07 0.06 0.05 0.03 0.02 0.01 0.01 0.01 0.01 0.02 0.02 0.02 0.03 0.03 0.03 0.03 0.04 0.04 0.06 0.06 0.06 0.05
0.03 0.04 0.04 0.03 0.03 0.02 0.01 0.01 0.01 0.01 0.01 0.01 0.01 0.01 0.02 0.03 0.04 0.03 0.03 0.01 0.01 0.02 0.02 0.03 0.04 0.05 0.07 0.09 0.09 0.06 0.05 0.05 0.03 0.03 0.03 0.02 0.02 0.02 0.03 0.04 0.03 0.03 0.03 0.03 0.05 0.05 0.04 0.04 0.05 0.05 0.05 0.06 0.06 0.07
0.01 0.02 0.03 0.06 0.03 0.01 0.02 0.01 0.01 0.01 0.01 0.01 0.01 0.02 0.04 0.05 0.05 0.06 0.05 0.02 0.03 0.06 0.06 0.06 0.07 0.07 0.04 0.04 0.04 0.03 0.03 0.05 0.06 0.04 0.04 0.04 0.03 0.04 0.06 0.07 0.07 0.06 0.05 0.05 0.06 0.07 0.07 0.07 0.07 0.07 0.07 0.07 0.07 0.08

GFSWCAN_prec_precacc24_171.txt.gz
Total_Precipitation_Accumulation
0.24 0.22 0.19 0.20 0.21 0.18 0.14 0.12 0.12 0.11 0.12 0.11 0.20 0.64 0.69 0.36 0.52 0.70 0.48 0.32 0.53 0.57 0.14 0.02 0.03 0.09 0.09 0.13 0.29 0.32 0.33 0.37 0.62 0.82 0.69 0.41 0.24 0.14 0.09 0.04 0.03 0.06 0.13 0.17 0.31 0.34 0.16 0.04 0.05 0.05 0.04 0.01 0.00 0.00
0.25 0.28 0.28 0.22 0.18 0.16 0.17 0.16 0.13 0.12 0.12 0.14 0.14 0.22 0.73 0.76 0.58 0.85 0.61 0.34 0.50 0.57 0.31 0.11 0.04 0.01 0.08 0.07 0.13 0.19 0.21 0.16 0.43 0.66 0.63 0.50 0.41 0.27 0.16 0.15 0.08 0.08 0.06 0.09 0.15 0.19 0.10 0.04 0.02 0.01 0.01 0.01 0.01 0.01
0.20 0.20 0.21 0.25 0.26 0.22 0.17 0.20 0.19 0.15 0.13 0.14 0.18 0.25 0.48 0.75 0.73 0.80 0.55 0.47 0.58 0.54 0.29 0.28 0.27 0.07 0.02 0.01 0.02 0.10 0.12 0.12 0.15 0.20 0.25 0.25 0.24 0.16 0.16 0.13 0.11 0.03 0.01 0.06 0.05 0.01 0.02 0.03 0.03 0.03 0.02 0.02 0.01 0.01
0.12 0.15 0.19 0.19 0.21 0.27 0.28 0.23 0.23 0.19 0.18 0.16 0.25 0.37 0.46 0.69 0.62 0.72 0.48 0.35 0.51 0.41 0.33 0.20 0.27 0.26 0.11 0.01 0.01 0.02 0.03 0.05 0.12 0.29 0.50 0.43 0.24 0.10 0.06 0.08 0.14 0.07 0.04 0.03 0.02 0.01 0.02 0.02 0.02 0.03 0.03 0.03 0.01 0.00
0.19 0.14 0.17 0.17 0.18 0.27 0.39 0.51 0.31 0.23 0.24 0.19 0.26 0.47 0.52 0.76 0.75 0.68 0.44 0.20 0.36 0.57 0.43 0.17 0.23 0.18 0.20 0.12 0.02 0.01 0.04 0.10 0.16 0.28 0.33 0.22 0.13 0.15 0.07 0.04 0.02 0.01 0.02 0.06 0.03 0.01 0.04 0.03 0.01 0.02 0.03 0.03 0.02 0.04
0.15 0.15 0.18 0.17 0.16 0.37 0.51 0.83 0.54 0.33 0.27 0.26 0.34 0.53 0.62 0.86 1.09 0.95 1.11 0.55 0.25 0.60 0.67 0.39 0.20 0.21 0.18 0.19 0.08 0.05 0.07 0.10 0.15 0.15 0.12 0.07 0.03 0.06 0.03 0.01 0.00 0.00 0.00 0.00 0.00 0.00 0.00 0.00 0.00 0.00 0.00 0.01 0.03 0.03
0.10 0.14 0.19 0.19 0.28 0.69 0.85 1.03 0.74 0.45 0.34 0.37 0.45 0.60 0.76 1.08 0.94 0.64 0.49 0.36 0.18 0.47 0.79 0.48 0.25 0.17 0.21 0.29 0.25 0.15 0.08 0.14 0.18 0.17 0.09 0.04 0.03 0.05 0.03 0.01 0.00 0.00 0.00 0.00 0.00 0.00 0.00 0.00 0.00 0.00 0.00 0.00 0.00 0.00
0.12 0.13 0.15 0.20 0.51 0.93 1.02 0.84 0.72 0.44 0.45 0.59 0.62 0.70 0.88 0.90 0.91 0.37 0.12 0.19 0.43 0.54 0.56 0.44 0.34 0.28 0.22 0.38 0.37 0.27 0.23 0.21 0.19 0.13 0.12 0.07 0.04 0.07 0.04 0.00 0.00 0.00 0.00 0.00 0.00 0.00 0.00 0.00 0.00 0.00 0.00 0.00 0.00 0.00
0.09 0.12 0.17 0.43 0.86 0.94 0.67 0.58 0.58 0.53 0.62 0.52 0.47 0.56 0.74 0.77 0.74 0.32 0.21 0.31 0.42 0.95 0.91 0.33 0.20 0.34 0.36 0.43 0.46 0.39 0.36 0.33 0.15 0.09 0.03 0.06 0.06 0.04 0.00 0.00 0.00 0.00 0.00 0.00 0.00 0.00 0.00 0.00 0.00 0.00 0.00 0.00 0.00 0.00
0.59 0.75 0.76 0.77 0.74 0.63 0.55 0.57 0.51 0.45 0.32 0.26 0.31 0.48 0.70 0.63 0.33 0.29 0.77 1.00 0.68 0.46 0.38 0.22 0.13 0.31 0.32 0.45 0.56 0.49 0.38 0.28 0.15 0.08 0.05 0.06 0.01 0.00 0.00 0.00 0.00 0.00 0.00 0.00 0.00 0.00 0.00 0.00 0.00 0.01 0.00 0.00 0.00 0.00
0.47 0.60 0.71 0.68 0.70 0.74 0.57 0.37 0.30 0.22 0.21 0.23 0.27 0.34 0.49 0.42 0.34 0.47 0.77 0.55 0.29 0.16 0.06 0.02 0.07 0.20 0.38 0.45 0.39 0.41 0.35 0.23 0.11 0.08 0.07 0.05 0.01 0.00 0.00 0.00 0.00 0.00 0.00 0.00 0.00 0.00 0.00 0.00 0.01 0.01 0.01 0.00 0.01 0.01
0.16 0.20 0.23 0.29 0.31 0.26 0.19 0.18 0.16 0.13 0.11 0.07 0.08 0.24 0.49 0.53 0.34 0.27 0.24 0.19 0.08 0.01 0.01 0.01 0.01 0.04 0.15 0.29 0.43 0.31 0.23 0.14 0.08 0.08 0.13 0.05 0.00 0.00 0.01 0.05 0.05 0.02 0.02 0.01 0.02 0.01 0.00 0.01 0.00 0.00 0.00 0.00 0.01 0.00
0.07 0.09 0.10 0.09 0.06 0.05 0.06 0.06 0.04 0.02 0.05 0.20 0.29 0.28 0.33 0.31 0.30 0.08 0.04 0.03 0.02 0.02 0.02 0.04 0.10 0.14 0.13 0.15 0.35 0.18 0.12 0.07 0.05 0.08 0.04 0.01 0.00 0.02 0.07 0.08 0.03 0.00 0.00 0.00 0.00 0.00 0.00 0.00 0.00 0.00 0.01 0.01 0.01 0.01
0.03 0.03 0.03 0.04 0.04 0.05 0.05 0.06 0.03 0.06 0.14 0.19 0.17 0.17 0.16 0.13 0.07 0.05 0.03 0.03 0.03 0.03 0.02 0.06 0.20 0.31 0.22 0.21 0.12 0.06 0.03 0.02 0.03 0.02 0.00 0.03 0.08 0.09 0.03 0.00 0.00 0.00 0.00 0.00 0.00 0.00 0.00 0.00 0.00 0.01 0.01 0.01 0.01 0.02
0.00 0.01 0.01 0.03 0.04 0.04 0.04 0.04 0.07 0.08 0.08 0.12 0.09 0.08 0.05 0.05 0.06 0.04 0.06 0.08 0.04 0.06 0.08 0.16 0.24 0.26 0.22 0.11 0.02 0.02 0.03 0.02 0.00 0.00 0.01 0.06 0.04 0.02 0.01 0.01 0.01 0.01 0.02 0.01 0.01 0.00 0.00 0.00 0.00 0.00 0.00 0.00 0.00 0.01
0.01 0.02 0.01 0.01 0.00 0.01 0.01 0.02 0.04 0.06 0.11 0.08 0.04 0.02 0.02 0.04 0.05 0.03 0.04 0.07 0.08 0.10 0.20 0.22 0.34 0.20 0.28 0.18 0.03 0.01 0.00 0.01 0.02 0.06 0.09 0.07 0.03 0.01 0.00 0.00 0.00 0.00 0.00 0.01 0.00 0.00 0.00 0.00 0.00 0.00 0.02 0.03 0.03 0.02
0.00 0.01 0.01 0.01 0.01 0.02 0.02 0.03 0.10 0.20 0.07 0.02 0.03 0.03 0.05 0.06 0.03 0.02 0.03 0.04 0.04 0.14 0.24 0.09 0.09 0.12 0.10 0.10 0.04 0.00 0.01 0.02 0.04 0.04 0.01 0.00 0.00 0.00 0.00 0.00 0.00 0.00 0.00 0.00 0.00 0.00 0.00 0.00 0.01 0.01 0.02 0.05 0.07 0.11
0.02 0.01 0.00 0.01 0.01 0.04 0.06 0.09 0.08 0.06 0.01 0.00 0.02 0.04 0.05 0.05 0.03 0.02 0.02 0.03 0.03 0.06 0.13 0.10 0.02 0.01 0.04 0.05 0.07 0.07 0.11 0.06 0.03 0.02 0.00 0.00 0.00 0.00 0.00 0.00 0.00 0.00 0.00 0.00 0.01 0.01 0.01 0.01 0.01 0.02 0.03 0.05 0.04 0.05
0.00 0.00 0.00 0.00 0.01 0.02 0.05 0.05 0.05 0.06 0.02 0.03 0.04 0.04 0.03 0.04 0.03 0.02 0.01 0.02 0.01 0.02 0.05 0.05 0.08 0.02 0.02 0.03 0.05 0.04 0.01 0.01 0.00 0.00 0.00 0.00 0.00 0.00 0.00 0.00 0.00 0.00 0.00 0.00 0.00 0.01 0.01 0.01 0.01 0.01 0.01 0.01 0.02 0.02
0.00 0.00 0.00 0.00 0.00 0.05 0.04 0.04 0.04 0.02 0.01 0.08 0.05 0.05 0.07 0.03 0.01 0.01 0.01 0.02 0.04 0.06 0.04 0.01 0.00 0.00 0.02 0.01 0.00 0.00 0.00 0.00 0.00 0.01 0.03 0.03 0.02 0.02 0.01 0.01 0.01 0.01 0.02 0.02 0.02 0.02 0.02 0.01 0.01 0.01 0.01 0.01 0.02 0.02
0.01 0.00 0.00 0.02 0.05 0.12 0.09 0.07 0.09 0.07 0.08 0.02 0.01 0.06 0.10 0.04 0.04 0.04 0.03 0.04 0.13 0.08 0.02 0.01 0.01 0.01 0.00 0.00 0.00 0.00 0.00 0.00 0.00 0.00 0.01 0.03 0.05 0.03 0.04 0.04 0.03 0.03 0.02 0.02 0.03 0.02 0.01 0.01 0.01 0.01 0.02 0.03 0.02 0.02
0.00 0.01 0.02 0.03 0.07 0.08 0.06 0.03 0.04 0.07 0.03 0.02 0.03 0.04 0.08 0.08 0.06 0.09 0.16 0.21 0.09 0.04 0.06 0.05 0.03 0.01 0.00 0.00 0.00 0.00 0.00 0.00 0.00 0.00 0.00 0.00 0.02 0.03 0.05 0.03 0.02 0.01 0.01 0.02 0.02 0.01 0.00 0.00 0.00 0.01 0.02 0.03 0.03 0.03
0.01 0.02 0.04 0.02 0.02 0.01 0.01 0.01 0.01 0.02 0.05 0.06 0.05 0.07 0.06 0.09 0.08 0.10 0.21 0.13 0.08 0.07 0.08 0.05 0.03 0.03 0.02 0.01 0.01 0.01 0.01 0.01 0.01 0.01 0.00 0.01 0.01 0.02 0.03 0.03 0.01 0.01 0.01 0.01 0.00 0.01 0.01 0.00 0.01 0.02 0.02 0.04 0.04 0.06
0.01 0.05 0.11 0.12 0.07 0.03 0.01 0.01 0.01 0.03 0.04 0.04 0.07 0.07 0.05 0.06 0.08 0.15 0.10 0.08 0.14 0.12 0.07 0.06 0.07 0.06 0.03 0.02 0.02 0.02 0.02 0.02 0.02 0.02 0.03 0.04 0.06 0.06 0.03 0.03 0.04 0.04 0.03 0.06 0.06 0.04 0.03 0.04 0.04 0.05 0.06 0.06 0.07 0.07
0.12 0.07 0.05 0.04 0.05 0.07 0.03 0.01 0.01 0.02 0.04 0.02 0.05 0.05 0.03 0.03 0.10 0.05 0.04 0.13 0.22 0.18 0.07 0.04 0.05 0.06 0.08 0.09 0.11 0.13 0.13 0.13 0.14 0.13 0.10 0.08 0.09 0.08 0.08 0.07 0.08 0.07 0.09 0.15 0.14 0.14 0.16 0.16 0.15 0.15 0.16 0.12 0.13 0.12
0.03 0.01 0.02 0.02 0.03 0.04 0.02 0.02 0.03 0.04 0.03 0.03 0.04 0.05 0.04 0.09 0.08 0.03 0.12 0.42 0.34 0.09 0.02 0.01 0.01 0.01 0.03 0.06 0.09 0.11 0.11 0.11 0.12 0.08 0.05 0.05 0.07 0.07 0.04 0.03 0.03 0.04 0.05 0.09 0.12 0.16 0.18 0.21 0.22 0.23 0.23 0.23 0.22 0.19
0.02 0.01 0.01 0.01 0.01 0.01 0.01 0.01 0.01 0.01 0.02 0.03 0.05 0.05 0.10 0.12 0.06 0.17 0.25 0.37 0.14 0.02 0.00 0.00 0.00 0.01 0.01 0.02 0.03 0.06 0.05 0.05 0.06 0.06 0.03 0.02 0.03 0.04 0.03 0.03 0.03 0.02 0.01 0.02 0.03 0.06 0.09 0.13 0.15 0.18 0.21 0.24 0.21 0.20
0.04 0.02 0.03 0.02 0.01 0.01 0.03 0.03 0.02 0.03 0.03 0.02 0.03 0.04 0.05 0.04 0.05 0.06 0.04 0.01 0.00 0.00 0.01 0.02 0.01 0.01 0.01 0.01 0.02 0.03 0.04 0.04 0.05 0.04 0.03 0.04 0.04 0.02 0.02 0.01 0.01 0.01 0.02 0.03 0.02 0.02 0.04 0.05 0.08 0.12 0.16 0.18 0.22 0.24
0.07 0.02 0.02 0.03 0.02 0.05 0.08 0.05 0.05 0.04 0.01 0.00 0.04 0.03 0.02 0.01 0.01 0.01 0.00 0.00 0.00 0.00 0.02 0.02 0.04 0.05 0.05 0.04 0.04 0.04 0.04 0.06 0.07 0.08 0.07 0.07 0.03 0.01 0.00 0.00 0.00 0.00 0.01 0.02 0.03 0.02 0.01 0.01 0.02 0.04 0.07 0.10 0.13 0.16
0.06 0.04 0.06 0.09 0.05 0.06 0.07 0.03 0.03 0.01 0.00 0.00 0.00 0.01 0.01 0.04 0.04 0.03 0.01 0.00 0.01 0.02 0.03 0.03 0.04 0.06 0.07 0.07 0.08 0.08 0.09 0.10 0.11 0.11 0.09 0.08 0.03 0.00 0.00 0.01 0.01 0.02 0.02 0.03 0.03 0.04 0.03 0.03 0.04 0.05 0.06 0.09 0.10 0.11
0.05 0.05 0.07 0.07 0.04 0.02 0.02 0.02 0.01 0.00 0.01 0.01 0.01 0.01 0.03 0.05 0.05 0.05 0.02 0.01 0.01 0.01 0.02 0.02 0.03 0.05 0.08 0.08 0.09 0.09 0.11 0.09 0.10 0.09 0.07 0.05 0.03 0.01 0.01 0.01 0.02 0.02 0.02 0.02 0.03 0.03 0.03 0.03 0.03 0.04 0.05 0.06 0.06 0.06
0.03 0.04 0.04 0.03 0.02 0.02 0.02 0.03 0.01 0.01 0.00 0.01 0.01 0.02 0.04 0.07 0.10 0.06 0.04 0.01 0.01 0.02 0.02 0.03 0.04 0.05 0.07 0.10 0.11 0.09 0.07 0.06 0.05 0.05 0.05 0.04 0.02 0.02 0.03 0.05 0.04 0.03 0.03 0.03 0.05 0.05 0.04 0.04 0.05 0.05 0.05 0.06 0.06 0.07
0.01 0.01 0.03 0.07 0.04 0.03 0.03 0.01 0.01 0.01 0.01 0.01 0.02 0.04 0.10 0.11 0.10 0.09 0.07 0.03 0.04 0.07 0.06 0.06 0.06 0.08 0.06 0.06 0.06 0.05 0.05 0.07 0.08 0.06 0.04 0.03 0.02 0.04 0.06 0.08 0.08 0.07 0.05 0.05 0.06 0.07 0.07 0.07 0.07 0.07 0.07 0.07 0.08 0.08

GFSWCAN_prec_precacc24_174.txt.gz
Total_Precipitation_Accumulation
0.27 0.24 0.21 0.23 0.27 0.24 0.17 0.13 0.12 0.11 0.11 0.11 0.19 0.53 0.46 0.19 0.23 0.44 0.37 0.31 0.54 0.58 0.13 0.02 0.03 0.08 0.09 0.13 0.28 0.31 0.33 0.39 0.64 0.85 0.76 0.52 0.32 0.18 0.10 0.04 0.04 0.07 0.19 0.24 0.37 0.40 0.19 0.08 0.10 0.12 0.08 0.02 0.02 0.01
0.29 0.32 0.30 0.24 0.21 0.24 0.23 0.18 0.15 0.13 0.12 0.12 0.13 0.15 0.46 0.59 0.34 0.56 0.54 0.32 0.47 0.59 0.32 0.12 0.03 0.01 0.08 0.07 0.13 0.18 0.21 0.17 0.46 0.68 0.69 0.54 0.43 0.29 0.18 0.16 0.10 0.10 0.08 0.13 0.19 0.27 0.20 0.15 0.05 0.01 0.01 0.01 0.01 0.01
0.23 0.23 0.23 0.26 0.27 0.25 0.24 0.22 0.22 0.16 0.13 0.12 0.15 0.15 0.17 0.42 0.55 0.71 0.55 0.51 0.58 0.53 0.24 0.25 0.26 0.07 0.02 0.01 0.02 0.09 0.11 0.12 0.15 0.21 0.26 0.24 0.24 0.20 0.18 0.14 0.12 0.11 0.13 0.33 0.15 0.02 0.03 0.07 0.08 0.04 0.02 0.02 0.01 0.01
0.16 0.17 0.20 0.20 0.21 0.27 0.27 0.22 0.24 0.21 0.16 0.15 0.18 0.22 0.16 0.25 0.43 0.76 0.54 0.39 0.55 0.43 0.30 0.16 0.26 0.26 0.11 0.01 0.01 0.02 0.02 0.05 0.11 0.28 0.49 0.41 0.22 0.10 0.06 0.09 0.13 0.10 0.10 0.09 0.07 0.02 0.02 0.03 0.02 0.03 0.03 0.03 0.01 0.00
0.21 0.15 0.15 0.17 0.17 0.21 0.28 0.28 0.25 0.25 0.19 0.15 0.21 0.29 0.28 0.39 0.59 0.68 0.45 0.23 0.40 0.62 0.45 0.16 0.22 0.18 0.20 0.12 0.02 0.01 0.04 0.09 0.13 0.25 0.30 0.20 0.12 0.14 0.07 0.04 0.02 0.01 0.03 0.18 0.12 0.03 0.04 0.03 0.01 0.02 0.03 0.03 0.02 0.04
0.14 0.15 0.16 0.17 0.15 0.16 0.26 0.36 0.32 0.27 0.17 0.18 0.20 0.32 0.39 0.58 0.96 0.91 1.14 0.57 0.25 0.61 0.69 0.37 0.18 0.21 0.18 0.19 0.08 0.05 0.07 0.10 0.14 0.15 0.13 0.07 0.03 0.06 0.03 0.01 0.00 0.00 0.00 0.00 0.00 0.00 0.00 0.00 0.00 0.00 0.00 0.01 0.03 0.03
0.11 0.16 0.20 0.20 0.21 0.27 0.42 0.51 0.40 0.29 0.17 0.25 0.28 0.47 0.62 0.90 0.86 0.71 0.54 0.37 0.18 0.49 0.81 0.48 0.24 0.17 0.21 0.29 0.24 0.14 0.07 0.12 0.18 0.19 0.11 0.05 0.03 0.06 0.03 0.00 0.00 0.00 0.00 0.00 0.00 0.00 0.00 0.00 0.00 0.00 0.00 0.00 0.00 0.00
0.12 0.14 0.16 0.19 0.38 0.62 0.66 0.50 0.48 0.33 0.30 0.43 0.48 0.61 0.92 1.00 1.03 0.53 0.14 0.19 0.44 0.56 0.58 0.45 0.31 0.28 0.23 0.39 0.39 0.28 0.24 0.22 0.20 0.15 0.13 0.09 0.05 0.08 0.05 0.00 0.00 0.00 0.00 0.00 0.00 0.00 0.00 0.00 0.00 0.00 0.00 0.00 0.00 0.00
0.10 0.12 0.16 0.41 0.77 0.77 0.52 0.46 0.53 0.41 0.46 0.45 0.46 0.67 0.99 1.03 0.95 0.42 0.22 0.33 0.44 0.98 0.92 0.33 0.20 0.34 0.37 0.47 0.50 0.44 0.41 0.37 0.17 0.10 0.04 0.08 0.10 0.05 0.00 0.00 0.00 0.00 0.00 0.00 0.00 0.00 0.00 0.00 0.00 0.00 0.00 0.00 0.00 0.00
0.59 0.76 0.77 0.77 0.71 0.58 0.57 0.69 0.57 0.44 0.32 0.27 0.34 0.53 0.80 0.72 0.36 0.29 0.77 1.01 0.70 0.48 0.39 0.22 0.14 0.30 0.35 0.53 0.68 0.54 0.44 0.33 0.19 0.09 0.05 0.05 0.01 0.00 0.00 0.00 0.00 0.00 0.00 0.00 0.00 0.00 0.00 0.00 0.00 0.01 0.00 0.00 0.00 0.00
0.46 0.60 0.71 0.68 0.71 0.75 0.63 0.46 0.32 0.23 0.22 0.23 0.28 0.35 0.49 0.41 0.35 0.48 0.77 0.55 0.30 0.17 0.06 0.02 0.07 0.18 0.38 0.47 0.41 0.46 0.41 0.33 0.23 0.10 0.06 0.05 0.01 0.00 0.00 0.00 0.00 0.00 0.00 0.00 0.00 0.00 0.00 0.00 0.00 0.01 0.01 0.00 0.01 0.01
0.16 0.19 0.22 0.28 0.31 0.26 0.19 0.18 0.16 0.14 0.11 0.07 0.09 0.23 0.47 0.53 0.36 0.28 0.24 0.19 0.09 0.02 0.01 0.02 0.01 0.04 0.13 0.29 0.41 0.28 0.22 0.15 0.16 0.13 0.11 0.06 0.01 0.00 0.01 0.05 0.05 0.02 0.02 0.01 0.02 0.01 0.00 0.01 0.00 0.00 0.00 0.00 0.01 0.00
0.07 0.08 0.09 0.08 0.06 0.05 0.05 0.06 0.04 0.01 0.05 0.20 0.29 0.28 0.32 0.30 0.29 0.08 0.04 0.03 0.02 0.01 0.03 0.05 0.18 0.21 0.14 0.14 0.37 0.21 0.17 0.09 0.04 0.13 0.10 0.03 0.01 0.01 0.06 0.08 0.03 0.00 0.00 0.00 0.00 0.00 0.00 0.00 0.00 0.00 0.01 0.01 0.01 0.01
0.03 0.03 0.02 0.03 0.03 0.04 0.05 0.06 0.03 0.06 0.14 0.18 0.17 0.16 0.15 0.12 0.06 0.05 0.04 0.04 0.04 0.04 0.03 0.05 0.20 0.34 0.36 0.31 0.21 0.21 0.08 0.03 0.06 0.04 0.01 0.01 0.03 0.05 0.01 0.00 0.00 0.00 0.00 0.00 0.00 0.00 0.00 0.00 0.00 0.01 0.01 0.01 0.01 0.02
0.01 0.01 0.01 0.02 0.03 0.04 0.04 0.04 0.07 0.07 0.05 0.09 0.08 0.08 0.06 0.04 0.08 0.06 0.07 0.07 0.02 0.04 0.06 0.16 0.21 0.29 0.45 0.24 0.04 0.06 0.02 0.02 0.01 0.02 0.06 0.03 0.02 0.02 0.01 0.01 0.01 0.01 0.02 0.01 0.01 0.00 0.00 0.00 0.00 0.00 0.00 0.00 0.00 0.01
0.00 0.02 0.02 0.01 0.00 0.01 0.01 0.02 0.03 0.03 0.05 0.05 0.04 0.02 0.02 0.05 0.09 0.11 0.06 0.06 0.12 0.09 0.17 0.19 0.40 0.33 0.33 0.21 0.03 0.01 0.01 0.01 0.02 0.05 0.07 0.06 0.03 0.01 0.00 0.00 0.00 0.00 0.00 0.01 0.00 0.00 0.00 0.00 0.00 0.00 0.01 0.03 0.03 0.02
0.00 0.01 0.00 0.01 0.01 0.01 0.01 0.03 0.06 0.07 0.03 0.01 0.01 0.03 0.04 0.02 0.02 0.04 0.03 0.04 0.06 0.15 0.31 0.17 0.18 0.15 0.06 0.08 0.05 0.00 0.02 0.03 0.02 0.03 0.01 0.00 0.00 0.00 0.00 0.00 0.00 0.00 0.00 0.00 0.00 0.00 0.00 0.00 0.01 0.01 0.02 0.04 0.07 0.11
0.02 0.00 0.00 0.00 0.01 0.04 0.03 0.04 0.05 0.04 0.01 0.00 0.01 0.03 0.02 0.01 0.01 0.02 0.05 0.04 0.03 0.07 0.16 0.15 0.05 0.02 0.02 0.03 0.07 0.07 0.08 0.07 0.03 0.02 0.00 0.00 0.00 0.00 0.00 0.00 0.00 0.00 0.00 0.00 0.01 0.01 0.01 0.01 0.01 0.02 0.03 0.05 0.04 0.05
0.00 0.00 0.00 0.00 0.01 0.02 0.03 0.03 0.02 0.02 0.00 0.01 0.02 0.03 0.01 0.00 0.00 0.01 0.01 0.02 0.01 0.02 0.05 0.06 0.08 0.05 0.06 0.06 0.05 0.06 0.04 0.02 0.00 0.00 0.00 0.00 0.00 0.00 0.00 0.00 0.00 0.00 0.00 0.00 0.00 0.01 0.01 0.01 0.01 0.01 0.01 0.01 0.02 0.02
0.00 0.00 0.00 0.01 0.01 0.04 0.04 0.04 0.03 0.02 0.01 0.03 0.02 0.02 0.04 0.02 0.01 0.01 0.01 0.01 0.03 0.06 0.04 0.01 0.00 0.01 0.02 0.03 0.01 0.01 0.00 0.00 0.00 0.01 0.03 0.03 0.02 0.02 0.01 0.01 0.01 0.01 0.02 0.02 0.02 0.02 0.02 0.01 0.01 0.01 0.01 0.02 0.02 0.03
0.00 0.00 0.01 0.03 0.04 0.06 0.04 0.06 0.07 0.06 0.08 0.02 0.01 0.03 0.05 0.04 0.04 0.03 0.03 0.04 0.12 0.07 0.04 0.04 0.04 0.03 0.01 0.00 0.00 0.00 0.00 0.00 0.00 0.01 0.01 0.04 0.05 0.07 0.08 0.07 0.04 0.03 0.02 0.02 0.03 0.02 0.01 0.01 0.01 0.01 0.02 0.03 0.02 0.02
0.04 0.01 0.02 0.04 0.07 0.07 0.04 0.02 0.02 0.04 0.01 0.00 0.02 0.02 0.04 0.06 0.05 0.08 0.13 0.16 0.09 0.06 0.08 0.06 0.03 0.01 0.00 0.00 0.00 0.00 0.00 0.00 0.00 0.00 0.00 0.00 0.01 0.03 0.05 0.05 0.04 0.02 0.01 0.03 0.02 0.01 0.00 0.00 0.00 0.01 0.01 0.02 0.02 0.02
0.03 0.03 0.03 0.04 0.02 0.01 0.01 0.01 0.02 0.01 0.02 0.03 0.05 0.04 0.04 0.07 0.08 0.10 0.16 0.11 0.09 0.07 0.08 0.06 0.03 0.02 0.02 0.01 0.01 0.01 0.01 0.01 0.01 0.01 0.01 0.01 0.01 0.02 0.03 0.03 0.02 0.01 0.01 0.01 0.01 0.01 0.01 0.00 0.00 0.01 0.01 0.02 0.02 0.05
0.03 0.08 0.08 0.09 0.08 0.04 0.02 0.01 0.02 0.03 0.03 0.03 0.04 0.04 0.03 0.05 0.08 0.13 0.08 0.13 0.16 0.13 0.07 0.05 0.05 0.04 0.03 0.02 0.02 0.02 0.02 0.02 0.02 0.03 0.04 0.06 0.07 0.07 0.05 0.04 0.04 0.03 0.02 0.06 0.05 0.03 0.03 0.03 0.03 0.05 0.05 0.05 0.07 0.07
0.08 0.03 0.02 0.05 0.06 0.09 0.05 0.03 0.03 0.04 0.04 0.02 0.02 0.02 0.03 0.04 0.10 0.05 0.05 0.23 0.32 0.24 0.07 0.04 0.04 0.06 0.08 0.09 0.11 0.13 0.13 0.13 0.14 0.13 0.10 0.08 0.10 0.09 0.09 0.09 0.09 0.08 0.10 0.16 0.14 0.15 0.17 0.18 0.16 0.16 0.16 0.13 0.14 0.13
0.07 0.04 0.06 0.07 0.06 0.05 0.05 0.03 0.03 0.04 0.03 0.01 0.01 0.02 0.02 0.07 0.07 0.04 0.22 0.61 0.37 0.09 0.02 0.01 0.01 0.02 0.03 0.06 0.09 0.11 0.11 0.11 0.12 0.09 0.07 0.07 0.08 0.07 0.05 0.04 0.04 0.05 0.05 0.09 0.12 0.17 0.20 0.23 0.23 0.24 0.24 0.24 0.24 0.20
0.07 0.04 0.01 0.02 0.01 0.01 0.01 0.01 0.01 0.01 0.02 0.02 0.04 0.04 0.07 0.10 0.08 0.26 0.30 0.38 0.14 0.01 0.00 0.01 0.01 0.01 0.02 0.02 0.04 0.06 0.06 0.06 0.07 0.07 0.04 0.03 0.04 0.04 0.03 0.04 0.04 0.03 0.01 0.02 0.03 0.06 0.10 0.13 0.16 0.18 0.21 0.25 0.22 0.21
0.11 0.03 0.02 0.02 0.04 0.03 0.06 0.06 0.07 0.08 0.08 0.04 0.03 0.05 0.07 0.07 0.13 0.11 0.06 0.01 0.00 0.00 0.01 0.02 0.01 0.01 0.02 0.02 0.02 0.03 0.04 0.04 0.05 0.05 0.04 0.05 0.05 0.02 0.02 0.01 0.01 0.01 0.02 0.03 0.02 0.02 0.04 0.05 0.08 0.12 0.16 0.18 0.21 0.24
0.07 0.02 0.02 0.05 0.05 0.08 0.18 0.11 0.11 0.11 0.07 0.01 0.04 0.05 0.03 0.05 0.03 0.01 0.00 0.00 0.00 0.00 0.01 0.02 0.03 0.05 0.05 0.05 0.05 0.06 0.07 0.07 0.09 0.09 0.09 0.12 0.07 0.02 0.01 0.00 0.00 0.00 0.01 0.03 0.03 0.02 0.01 0.01 0.01 0.03 0.06 0.09 0.13 0.16
0.06 0.04 0.06 0.09 0.09 0.10 0.13 0.07 0.09 0.06 0.01 0.01 0.02 0.01 0.02 0.11 0.08 0.04 0.01 0.01 0.01 0.02 0.03 0.03 0.04 0.06 0.07 0.07 0.08 0.11 0.14 0.11 0.13 0.14 0.12 0.13 0.08 0.04 0.02 0.02 0.01 0.02 0.02 0.03 0.03 0.04 0.03 0.02 0.04 0.04 0.06 0.08 0.09 0.10
0.05 0.05 0.07 0.07 0.04 0.02 0.02 0.03 0.02 0.01 0.01 0.01 0.01 0.03 0.06 0.13 0.10 0.06 0.02 0.02 0.01 0.01 0.02 0.02 0.03 0.05 0.08 0.08 0.10 0.10 0.13 0.10 0.11 0.12 0.11 0.09 0.06 0.03 0.02 0.02 0.02 0.02 0.02 0.02 0.03 0.03 0.02 0.02 0.03 0.03 0.05 0.05 0.06 0.06
0.03 0.04 0.04 0.03 0.02 0.02 0.05 0.03 0.01 0.01 0.00 0.01 0.00 0.03 0.07 0.15 0.24 0.10 0.05 0.02 0.02 0.02 0.03 0.04 0.05 0.06 0.08 0.12 0.12 0.12 0.12 0.08 0.06 0.07 0.07 0.05 0.03 0.02 0.03 0.05 0.05 0.04 0.03 0.03 0.05 0.05 0.04 0.04 0.04 0.05 0.05 0.06 0.06 0.07
0.01 0.01 0.03 0.08 0.05 0.03 0.03 0.01 0.00 0.00 0.00 0.01 0.04 0.09 0.16 0.23 0.19 0.13 0.08 0.04 0.06 0.07 0.07 0.06 0.06 0.09 0.08 0.09 0.08 0.06 0.06 0.09 0.10 0.07 0.04 0.03 0.02 0.03 0.06 0.10 0.10 0.08 0.06 0.06 0.06 0.07 0.07 0.07 0.07 0.07 0.07 0.07 0.08 0.08

GFSWCAN_prec_precacc24_177.txt.gz
Total_Precipitation_Accumulation
0.30 0.28 0.24 0.25 0.28 0.24 0.18 0.19 0.16 0.11 0.10 0.10 0.21 0.54 0.46 0.18 0.13 0.17 0.08 0.12 0.26 0.37 0.08 0.03 0.04 0.06 0.06 0.11 0.22 0.27 0.31 0.40 0.65 0.85 0.77 0.54 0.37 0.21 0.11 0.04 0.03 0.07 0.23 0.31 0.49 0.55 0.26 0.09 0.12 0.15 0.13 0.05 0.02 0.01
0.30 0.35 0.36 0.29 0.23 0.25 0.24 0.19 0.22 0.15 0.11 0.11 0.13 0.16 0.47 0.60 0.26 0.27 0.13 0.11 0.24 0.43 0.29 0.14 0.04 0.01 0.02 0.06 0.12 0.18 0.21 0.18 0.47 0.70 0.70 0.55 0.43 0.29 0.18 0.16 0.11 0.11 0.08 0.13 0.22 0.33 0.24 0.18 0.08 0.02 0.01 0.01 0.01 0.01
0.24 0.24 0.26 0.29 0.28 0.26 0.26 0.24 0.25 0.20 0.13 0.12 0.15 0.16 0.18 0.41 0.49 0.36 0.16 0.26 0.47 0.46 0.23 0.25 0.26 0.07 0.02 0.01 0.02 0.09 0.11 0.11 0.16 0.22 0.27 0.25 0.24 0.20 0.17 0.14 0.13 0.11 0.13 0.33 0.22 0.06 0.18 0.20 0.12 0.05 0.02 0.02 0.01 0.01
0.16 0.18 0.23 0.23 0.22 0.27 0.31 0.28 0.27 0.23 0.17 0.15 0.19 0.21 0.17 0.21 0.33 0.47 0.28 0.23 0.53 0.43 0.28 0.14 0.26 0.26 0.11 0.01 0.01 0.02 0.01 0.04 0.11 0.27 0.48 0.41 0.21 0.10 0.06 0.08 0.13 0.10 0.09 0.08 0.12 0.07 0.15 0.17 0.07 0.04 0.03 0.02 0.01 0.00
0.21 0.15 0.17 0.19 0.19 0.23 0.34 0.37 0.28 0.27 0.22 0.16 0.22 0.27 0.26 0.25 0.36 0.56 0.35 0.20 0.43 0.67 0.48 0.17 0.22 0.17 0.20 0.12 0.02 0.01 0.03 0.07 0.12 0.22 0.28 0.19 0.12 0.13 0.07 0.04 0.02 0.01 0.03 0.22 0.30 0.21 0.23 0.13 0.04 0.02 0.03 0.03 0.02 0.04
0.13 0.17 0.17 0.18 0.16 0.19 0.30 0.38 0.32 0.29 0.22 0.20 0.20 0.29 0.31 0.34 0.58 0.61 0.84 0.36 0.22 0.68 0.72 0.37 0.18 0.21 0.18 0.19 0.08 0.05 0.07 0.10 0.14 0.14 0.13 0.07 0.03 0.05 0.02 0.01 0.00 0.00 0.00 0.00 0.00 0.00 0.05 0.09 0.00 0.00 0.00 0.01 0.03 0.03
0.12 0.16 0.21 0.21 0.19 0.17 0.22 0.39 0.37 0.28 0.18 0.21 0.19 0.30 0.39 0.46 0.50 0.49 0.34 0.22 0.17 0.50 0.83 0.48 0.24 0.17 0.21 0.29 0.24 0.14 0.08 0.14 0.19 0.20 0.12 0.06 0.03 0.08 0.03 0.00 0.00 0.00 0.00 0.00 0.00 0.00 0.00 0.00 0.00 0.00 0.00 0.00 0.00 0.00
0.15 0.16 0.17 0.17 0.20 0.22 0.29 0.40 0.40 0.27 0.15 0.19 0.21 0.35 0.66 0.69 0.73 0.42 0.11 0.19 0.45 0.58 0.59 0.45 0.30 0.27 0.23 0.40 0.40 0.28 0.25 0.24 0.21 0.16 0.13 0.09 0.06 0.09 0.06 0.00 0.00 0.00 0.00 0.00 0.00 0.00 0.00 0.00 0.00 0.00 0.00 0.00 0.00 0.00
0.10 0.12 0.15 0.29 0.43 0.28 0.21 0.27 0.38 0.25 0.23 0.28 0.34 0.60 0.94 0.89 0.84 0.38 0.22 0.36 0.50 1.00 0.93 0.33 0.19 0.33 0.38 0.48 0.53 0.47 0.44 0.38 0.18 0.11 0.04 0.09 0.10 0.06 0.00 0.00 0.00 0.00 0.00 0.00 0.00 0.00 0.00 0.00 0.00 0.00 0.00 0.00 0.00 0.00
0.59 0.75 0.72 0.63 0.37 0.20 0.21 0.36 0.39 0.30 0.25 0.25 0.34 0.57 0.84 0.74 0.42 0.32 0.80 1.02 0.71 0.49 0.39 0.22 0.14 0.30 0.36 0.55 0.68 0.54 0.47 0.35 0.21 0.10 0.05 0.06 0.01 0.00 0.00 0.00 0.00 0.00 0.00 0.00 0.00 0.00 0.00 0.00 0.00 0.00 0.00 0.00 0.00 0.00
0.47 0.60 0.71 0.63 0.55 0.50 0.43 0.39 0.30 0.23 0.23 0.24 0.30 0.37 0.49 0.42 0.37 0.51 0.78 0.55 0.30 0.17 0.06 0.02 0.07 0.18 0.38 0.47 0.40 0.47 0.46 0.39 0.28 0.12 0.07 0.05 0.01 0.00 0.00 0.00 0.00 0.00 0.00 0.00 0.00 0.00 0.00 0.00 0.00 0.01 0.00 0.00 0.00 0.01
0.16 0.20 0.23 0.29 0.30 0.25 0.19 0.18 0.16 0.15 0.12 0.08 0.09 0.23 0.48 0.54 0.38 0.28 0.25 0.20 0.09 0.02 0.01 0.03 0.03 0.05 0.14 0.29 0.40 0.26 0.21 0.15 0.17 0.27 0.26 0.07 0.02 0.00 0.00 0.00 0.01 0.01 0.01 0.00 0.00 0.00 0.00 0.01 0.00 0.00 0.00 0.00 0.00 0.00
0.07 0.08 0.09 0.08 0.06 0.05 0.06 0.07 0.04 0.01 0.05 0.20 0.29 0.28 0.33 0.30 0.29 0.08 0.04 0.03 0.02 0.01 0.03 0.07 0.19 0.23 0.13 0.13 0.35 0.20 0.18 0.10 0.05 0.23 0.32 0.07 0.03 0.01 0.01 0.03 0.02 0.00 0.00 0.00 0.00 0.00 0.00 0.00 0.00 0.00 0.00 0.01 0.01 0.01
0.03 0.03 0.03 0.03 0.03 0.05 0.05 0.06 0.03 0.06 0.14 0.18 0.17 0.16 0.15 0.12 0.06 0.05 0.04 0.05 0.04 0.04 0.04 0.10 0.30 0.38 0.37 0.40 0.21 0.28 0.17 0.04 0.08 0.05 0.03 0.02 0.01 0.03 0.02 0.03 0.01 0.00 0.00 0.01 0.01 0.00 0.00 0.00 0.00 0.00 0.01 0.01 0.00 0.00
0.01 0.01 0.01 0.02 0.03 0.04 0.04 0.04 0.07 0.07 0.05 0.09 0.08 0.08 0.06 0.04 0.08 0.07 0.07 0.07 0.03 0.04 0.07 0.17 0.22 0.29 0.42 0.34 0.10 0.11 0.04 0.04 0.01 0.04 0.28 0.05 0.02 0.05 0.02 0.02 0.02 0.02 0.02 0.02 0.01 0.00 0.00 0.00 0.00 0.00 0.00 0.00 0.00 0.01
0.00 0.01 0.02 0.01 0.00 0.01 0.01 0.02 0.03 0.03 0.05 0.05 0.04 0.02 0.03 0.06 0.11 0.14 0.07 0.06 0.14 0.14 0.14 0.20 0.33 0.40 0.31 0.24 0.06 0.02 0.01 0.02 0.04 0.05 0.06 0.04 0.03 0.01 0.00 0.00 0.00 0.00 0.00 0.01 0.00 0.00 0.00 0.00 0.00 0.00 0.01 0.03 0.03 0.02
0.00 0.02 0.00 0.01 0.01 0.01 0.01 0.03 0.06 0.07 0.02 0.01 0.01 0.04 0.04 0.03 0.02 0.04 0.03 0.04 0.07 0.20 0.37 0.26 0.34 0.24 0.09 0.12 0.07 0.02 0.03 0.09 0.04 0.01 0.00 0.00 0.00 0.00 0.00 0.00 0.00 0.00 0.00 0.00 0.00 0.00 0.00 0.00 0.01 0.01 0.02 0.04 0.06 0.11
0.01 0.03 0.00 0.00 0.01 0.04 0.03 0.04 0.05 0.03 0.01 0.00 0.01 0.04 0.03 0.01 0.01 0.02 0.05 0.05 0.03 0.06 0.16 0.21 0.08 0.03 0.03 0.03 0.06 0.07 0.06 0.05 0.03 0.02 0.00 0.00 0.00 0.00 0.00 0.00 0.00 0.00 0.00 0.00 0.01 0.01 0.01 0.01 0.01 0.02 0.03 0.04 0.04 0.04
0.01 0.03 0.00 0.00 0.01 0.03 0.04 0.03 0.02 0.02 0.00 0.00 0.01 0.01 0.00 0.00 0.00 0.00 0.01 0.01 0.01 0.01 0.02 0.05 0.08 0.06 0.08 0.13 0.11 0.06 0.05 0.02 0.00 0.00 0.00 0.00 0.00 0.00 0.00 0.00 0.00 0.00 0.00 0.00 0.00 0.01 0.01 0.01 0.01 0.01 0.01 0.01 0.02 0.02
0.00 0.00 0.00 0.01 0.02 0.06 0.04 0.05 0.03 0.02 0.00 0.02 0.01 0.00 0.01 0.00 0.00 0.01 0.01 0.01 0.01 0.04 0.03 0.01 0.01 0.03 0.03 0.04 0.01 0.00 0.00 0.00 0.00 0.01 0.03 0.03 0.02 0.02 0.01 0.00 0.01 0.02 0.02 0.03 0.03 0.02 0.02 0.01 0.01 0.01 0.01 0.02 0.02 0.03
0.00 0.00 0.01 0.03 0.05 0.05 0.04 0.04 0.05 0.03 0.04 0.01 0.00 0.01 0.02 0.03 0.02 0.03 0.03 0.04 0.10 0.07 0.05 0.06 0.06 0.04 0.01 0.00 0.00 0.00 0.00 0.00 0.00 0.01 0.02 0.04 0.05 0.06 0.07 0.07 0.06 0.04 0.04 0.03 0.03 0.02 0.01 0.01 0.01 0.01 0.02 0.03 0.02 0.02
0.05 0.06 0.07 0.04 0.06 0.07 0.03 0.01 0.01 0.02 0.01 0.00 0.00 0.01 0.03 0.04 0.05 0.07 0.11 0.13 0.09 0.06 0.09 0.09 0.04 0.01 0.00 0.00 0.00 0.00 0.00 0.00 0.00 0.00 0.00 0.01 0.01 0.01 0.03 0.05 0.05 0.04 0.04 0.03 0.02 0.01 0.00 0.00 0.00 0.01 0.01 0.02 0.01 0.01
0.04 0.07 0.09 0.07 0.07 0.04 0.01 0.01 0.04 0.02 0.02 0.03 0.05 0.06 0.04 0.05 0.07 0.10 0.13 0.11 0.10 0.08 0.08 0.06 0.03 0.02 0.02 0.01 0.01 0.01 0.01 0.01 0.01 0.01 0.02 0.01 0.01 0.01 0.02 0.03 0.02 0.01 0.01 0.01 0.01 0.01 0.01 0.00 0.00 0.01 0.01 0.01 0.01 0.04
0.04 0.11 0.15 0.16 0.13 0.05 0.02 0.01 0.02 0.03 0.05 0.04 0.05 0.02 0.01 0.02 0.07 0.12 0.08 0.23 0.29 0.22 0.08 0.05 0.05 0.04 0.03 0.02 0.02 0.02 0.02 0.02 0.02 0.03 0.04 0.06 0.07 0.06 0.06 0.05 0.03 0.03 0.03 0.06 0.04 0.03 0.03 0.03 0.04 0.05 0.05 0.05 0.06 0.06
0.03 0.01 0.02 0.06 0.08 0.11 0.07 0.06 0.05 0.06 0.07 0.03 0.01 0.00 0.01 0.02 0.05 0.03 0.07 0.38 0.40 0.25 0.07 0.04 0.04 0.06 0.08 0.09 0.11 0.13 0.13 0.14 0.15 0.13 0.10 0.09 0.10 0.08 0.08 0.07 0.07 0.06 0.10 0.15 0.14 0.15 0.16 0.18 0.17 0.17 0.17 0.15 0.14 0.14
0.11 0.12 0.10 0.12 0.07 0.07 0.08 0.04 0.05 0.06 0.02 0.01 0.01 0.01 0.02 0.05 0.04 0.05 0.31 0.68 0.41 0.10 0.03 0.02 0.01 0.02 0.03 0.06 0.09 0.11 0.11 0.11 0.12 0.09 0.07 0.08 0.09 0.08 0.05 0.05 0.07 0.07 0.05 0.08 0.13 0.18 0.21 0.25 0.26 0.27 0.27 0.27 0.25 0.22
0.11 0.05 0.02 0.02 0.02 0.03 0.03 0.01 0.01 0.02 0.03 0.04 0.05 0.03 0.06 0.09 0.14 0.38 0.36 0.40 0.14 0.02 0.01 0.01 0.01 0.02 0.02 0.03 0.04 0.06 0.06 0.06 0.07 0.07 0.04 0.04 0.06 0.05 0.04 0.05 0.06 0.05 0.02 0.03 0.04 0.07 0.12 0.15 0.18 0.20 0.23 0.27 0.24 0.22
0.14 0.04 0.02 0.02 0.05 0.05 0.07 0.09 0.13 0.18 0.19 0.10 0.04 0.06 0.12 0.18 0.25 0.18 0.08 0.02 0.00 0.00 0.00 0.01 0.01 0.01 0.02 0.02 0.03 0.05 0.06 0.05 0.05 0.05 0.05 0.07 0.07 0.05 0.04 0.03 0.03 0.02 0.02 0.03 0.02 0.03 0.04 0.06 0.09 0.12 0.16 0.18 0.21 0.25
0.07 0.02 0.02 0.04 0.05 0.08 0.25 0.20 0.17 0.21 0.13 0.04 0.06 0.05 0.05 0.12 0.08 0.04 0.02 0.00 0.00 0.00 0.01 0.02 0.02 0.03 0.04 0.04 0.05 0.07 0.09 0.07 0.09 0.10 0.10 0.17 0.16 0.07 0.04 0.02 0.01 0.00 0.01 0.03 0.03 0.02 0.01 0.01 0.01 0.03 0.07 0.09 0.13 0.16
0.05 0.04 0.06 0.09 0.09 0.11 0.18 0.09 0.10 0.07 0.02 0.02 0.04 0.03 0.06 0.22 0.12 0.04 0.02 0.01 0.01 0.02 0.03 0.03 0.04 0.06 0.06 0.06 0.07 0.10 0.15 0.11 0.14 0.15 0.15 0.17 0.13 0.08 0.04 0.03 0.02 0.02 0.02 0.03 0.03 0.03 0.02 0.02 0.03 0.04 0.05 0.07 0.08 0.10
0.05 0.05 0.08 0.07 0.04 0.02 0.02 0.03 0.02 0.01 0.00 0.01 0.03 0.05 0.10 0.27 0.17 0.07 0.02 0.02 0.01 0.01 0.02 0.02 0.03 0.05 0.07 0.09 0.10 0.10 0.14 0.11 0.11 0.12 0.12 0.12 0.08 0.04 0.03 0.02 0.02 0.02 0.02 0.02 0.03 0.03 0.02 0.02 0.03 0.03 0.05 0.05 0.06 0.05
0.03 0.04 0.04 0.03 0.02 0.01 0.05 0.05 0.01 0.01 0.00 0.00 0.00 0.03 0.08 0.28 0.42 0.14 0.07 0.03 0.02 0.03 0.03 0.05 0.06 0.07 0.09 0.14 0.13 0.13 0.14 0.10 0.07 0.08 0.07 0.05 0.03 0.01 0.02 0.04 0.05 0.05 0.04 0.03 0.04 0.04 0.04 0.04 0.04 0.05 0.05 0.06 0.06 0.06
0.01 0.01 0.03 0.08 0.05 0.03 0.02 0.01 0.00 0.00 0.00 0.01 0.04 0.14 0.23 0.31 0.29 0.19 0.10 0.06 0.07 0.08 0.08 0.07 0.07 0.09 0.08 0.10 0.08 0.06 0.07 0.10 0.11 0.07 0.03 0.03 0.02 0.03 0.06 0.10 0.11 0.08 0.06 0.06 0.06 0.07 0.07 0.07 0.07 0.07 0.07 0.07 0.08 0.08

GFSWCAN_prec_precacc24_180.txt.gz
Total_Precipitation_Accumulation
0.32 0.27 0.26 0.28 0.30 0.27 0.20 0.21 0.18 0.19 0.14 0.11 0.22 0.55 0.47 0.18 0.14 0.18 0.08 0.10 0.14 0.10 0.02 0.04 0.05 0.05 0.06 0.11 0.21 0.25 0.26 0.36 0.58 0.79 0.74 0.51 0.35 0.21 0.11 0.04 0.05 0.11 0.30 0.36 0.53 0.63 0.32 0.10 0.13 0.17 0.14 0.05 0.03 0.02
0.30 0.35 0.37 0.31 0.27 0.30 0.26 0.20 0.23 0.17 0.16 0.12 0.12 0.16 0.46 0.58 0.25 0.26 0.11 0.10 0.18 0.20 0.07 0.05 0.02 0.01 0.01 0.03 0.08 0.14 0.18 0.18 0.47 0.70 0.71 0.55 0.43 0.29 0.18 0.16 0.11 0.12 0.09 0.14 0.23 0.34 0.28 0.19 0.08 0.02 0.01 0.01 0.01 0.01
0.22 0.23 0.25 0.29 0.30 0.29 0.28 0.25 0.25 0.26 0.14 0.13 0.15 0.16 0.19 0.41 0.50 0.36 0.14 0.17 0.27 0.19 0.06 0.00 0.00 0.02 0.01 0.00 0.01 0.06 0.07 0.10 0.15 0.22 0.27 0.25 0.24 0.20 0.17 0.14 0.13 0.11 0.13 0.33 0.22 0.06 0.18 0.20 0.12 0.05 0.02 0.01 0.01 0.01
0.18 0.19 0.22 0.24 0.24 0.29 0.32 0.30 0.27 0.31 0.18 0.16 0.20 0.22 0.20 0.25 0.37 0.49 0.26 0.12 0.19 0.19 0.11 0.01 0.06 0.23 0.11 0.01 0.01 0.01 0.01 0.03 0.09 0.26 0.48 0.40 0.21 0.10 0.06 0.08 0.13 0.10 0.09 0.08 0.11 0.07 0.16 0.30 0.13 0.05 0.05 0.04 0.01 0.00
0.21 0.15 0.17 0.22 0.21 0.23 0.35 0.38 0.29 0.35 0.23 0.18 0.24 0.29 0.28 0.29 0.40 0.60 0.38 0.18 0.16 0.36 0.34 0.10 0.16 0.17 0.20 0.12 0.02 0.01 0.03 0.06 0.11 0.21 0.28 0.19 0.12 0.13 0.07 0.04 0.02 0.01 0.03 0.22 0.30 0.21 0.24 0.20 0.18 0.26 0.11 0.05 0.03 0.04
0.14 0.18 0.19 0.20 0.18 0.21 0.34 0.42 0.34 0.33 0.25 0.23 0.23 0.33 0.34 0.37 0.57 0.61 0.87 0.25 0.07 0.31 0.60 0.31 0.16 0.21 0.18 0.19 0.08 0.05 0.07 0.10 0.14 0.14 0.13 0.07 0.03 0.05 0.02 0.01 0.00 0.00 0.00 0.00 0.00 0.00 0.06 0.18 0.07 0.01 0.00 0.01 0.03 0.03
0.14 0.18 0.23 0.24 0.27 0.31 0.34 0.40 0.38 0.30 0.22 0.25 0.21 0.33 0.41 0.43 0.36 0.35 0.23 0.13 0.05 0.31 0.75 0.45 0.23 0.17 0.21 0.29 0.24 0.14 0.08 0.14 0.20 0.20 0.12 0.06 0.03 0.10 0.04 0.00 0.00 0.00 0.00 0.00 0.00 0.00 0.00 0.01 0.01 0.00 0.00 0.00 0.00 0.00
0.16 0.17 0.19 0.22 0.23 0.21 0.25 0.29 0.32 0.27 0.16 0.20 0.21 0.36 0.57 0.53 0.42 0.24 0.07 0.16 0.37 0.49 0.57 0.45 0.30 0.27 0.23 0.40 0.40 0.28 0.25 0.24 0.21 0.16 0.13 0.09 0.06 0.09 0.06 0.00 0.00 0.00 0.00 0.00 0.00 0.00 0.00 0.00 0.00 0.00 0.00 0.00 0.00 0.00
0.11 0.12 0.12 0.13 0.12 0.13 0.15 0.20 0.35 0.22 0.16 0.22 0.27 0.41 0.61 0.52 0.45 0.20 0.11 0.26 0.44 1.00 0.93 0.33 0.19 0.33 0.38 0.48 0.53 0.47 0.44 0.38 0.18 0.11 0.04 0.09 0.10 0.06 0.00 0.00 0.00 0.00 0.00 0.00 0.00 0.00 0.00 0.00 0.00 0.00 0.00 0.00 0.00 0.00
0.55 0.53 0.30 0.17 0.15 0.16 0.19 0.33 0.29 0.13 0.14 0.15 0.16 0.31 0.47 0.37 0.23 0.18 0.59 0.98 0.77 0.50 0.39 0.22 0.14 0.30 0.36 0.55 0.68 0.54 0.47 0.35 0.21 0.10 0.05 0.06 0.01 0.00 0.00 0.00 0.00 0.00 0.00 0.00 0.00 0.00 0.00 0.00 0.00 0.00 0.00 0.00 0.00 0.00
0.36 0.33 0.34 0.22 0.15 0.19 0.28 0.28 0.15 0.12 0.15 0.18 0.23 0.29 0.30 0.22 0.26 0.43 0.74 0.54 0.30 0.17 0.06 0.02 0.07 0.18 0.39 0.47 0.40 0.48 0.46 0.41 0.30 0.12 0.07 0.06 0.01 0.00 0.00 0.00 0.00 0.00 0.00 0.00 0.01 0.00 0.00 0.00 0.00 0.01 0.00 0.00 0.00 0.00
0.14 0.15 0.14 0.14 0.14 0.16 0.17 0.16 0.14 0.14 0.11 0.07 0.08 0.22 0.47 0.52 0.36 0.27 0.24 0.20 0.09 0.02 0.01 0.03 0.03 0.06 0.15 0.29 0.40 0.26 0.21 0.15 0.17 0.27 0.29 0.09 0.03 0.03 0.02 0.01 0.01 0.00 0.00 0.00 0.01 0.01 0.00 0.01 0.00 0.00 0.00 0.00 0.00 0.00
0.06 0.06 0.06 0.04 0.04 0.05 0.07 0.07 0.04 0.01 0.05 0.20 0.29 0.28 0.33 0.30 0.29 0.08 0.04 0.03 0.02 0.01 0.03 0.07 0.20 0.24 0.14 0.14 0.35 0.20 0.18 0.10 0.06 0.24 0.35 0.14 0.07 0.02 0.01 0.04 0.02 0.00 0.00 0.01 0.00 0.00 0.00 0.00 0.00 0.00 0.00 0.00 0.00 0.00
0.03 0.03 0.03 0.03 0.03 0.05 0.05 0.06 0.03 0.06 0.14 0.18 0.17 0.16 0.15 0.12 0.06 0.05 0.04 0.05 0.04 0.04 0.04 0.10 0.31 0.46 0.42 0.46 0.24 0.30 0.20 0.08 0.12 0.09 0.18 0.14 0.02 0.04 0.02 0.06 0.01 0.00 0.00 0.01 0.02 0.01 0.00 0.00 0.00 0.00 0.00 0.00 0.00 0.00
0.01 0.01 0.01 0.02 0.03 0.04 0.04 0.04 0.07 0.07 0.05 0.09 0.08 0.08 0.06 0.04 0.08 0.07 0.07 0.07 0.03 0.04 0.07 0.20 0.23 0.30 0.45 0.38 0.12 0.13 0.09 0.09 0.07 0.09 0.54 0.09 0.02 0.05 0.04 0.05 0.03 0.02 0.02 0.02 0.02 0.03 0.00 0.00 0.00 0.00 0.00 0.00 0.00 0.00
0.00 0.01 0.02 0.01 0.00 0.01 0.01 0.02 0.03 0.03 0.05 0.05 0.04 0.02 0.03 0.06 0.11 0.14 0.07 0.06 0.14 0.15 0.20 0.24 0.37 0.41 0.32 0.15 0.13 0.06 0.04 0.06 0.11 0.05 0.04 0.01 0.01 0.01 0.00 0.01 0.01 0.00 0.00 0.00 0.00 0.00 0.00 0.00 0.00 0.00 0.01 0.02 0.02 0.01
0.00 0.02 0.00 0.01 0.01 0.01 0.01 0.03 0.06 0.07 0.02 0.01 0.01 0.04 0.04 0.03 0.02 0.04 0.03 0.04 0.07 0.20 0.41 0.33 0.52 0.31 0.17 0.16 0.12 0.02 0.06 0.25 0.08 0.00 0.00 0.00 0.00 0.00 0.00 0.00 0.00 0.00 0.00 0.00 0.00 0.00 0.00 0.00 0.00 0.00 0.01 0.03 0.06 0.11
0.01 0.04 0.00 0.00 0.01 0.04 0.03 0.04 0.05 0.03 0.01 0.00 0.01 0.04 0.03 0.01 0.01 0.02 0.05 0.05 0.03 0.07 0.13 0.19 0.10 0.04 0.04 0.05 0.12 0.22 0.16 0.09 0.01 0.00 0.00 0.00 0.00 0.00 0.00 0.00 0.00 0.00 0.00 0.00 0.01 0.01 0.01 0.01 0.01 0.02 0.03 0.04 0.04 0.04
0.01 0.03 0.00 0.00 0.01 0.03 0.04 0.03 0.02 0.02 0.00 0.00 0.01 0.01 0.00 0.00 0.00 0.00 0.01 0.01 0.01 0.01 0.02 0.04 0.08 0.07 0.10 0.18 0.24 0.12 0.08 0.02 0.00 0.00 0.00 0.00 0.00 0.00 0.00 0.00 0.00 0.00 0.00 0.00 0.00 0.01 0.01 0.01 0.01 0.01 0.01 0.01 0.02 0.02
0.00 0.00 0.00 0.01 0.02 0.06 0.04 0.05 0.04 0.03 0.00 0.02 0.01 0.00 0.00 0.00 0.00 0.01 0.01 0.01 0.01 0.04 0.03 0.02 0.02 0.04 0.04 0.04 0.01 0.00 0.00 0.00 0.00 0.01 0.03 0.03 0.02 0.02 0.01 0.00 0.01 0.01 0.02 0.03 0.03 0.03 0.02 0.01 0.01 0.01 0.01 0.02 0.02 0.03
0.00 0.00 0.01 0.03 0.05 0.05 0.04 0.04 0.05 0.03 0.02 0.01 0.00 0.01 0.01 0.02 0.02 0.02 0.02 0.04 0.10 0.07 0.06 0.08 0.11 0.09 0.03 0.00 0.00 0.00 0.00 0.00 0.00 0.01 0.02 0.04 0.05 0.06 0.06 0.05 0.04 0.03 0.04 0.03 0.03 0.02 0.01 0.01 0.01 0.01 0.02 0.03 0.02 0.02
0.05 0.06 0.09 0.06 0.08 0.07 0.04 0.01 0.01 0.02 0.01 0.00 0.00 0.01 0.02 0.03 0.04 0.08 0.11 0.12 0.09 0.07 0.11 0.09 0.04 0.01 0.00 0.00 0.00 0.00 0.00 0.00 0.00 0.00 0.00 0.01 0.01 0.02 0.03 0.04 0.05 0.04 0.04 0.03 0.02 0.01 0.00 0.00 0.00 0.01 0.01 0.02 0.02 0.01
0.04 0.07 0.11 0.11 0.10 0.05 0.02 0.01 0.05 0.02 0.02 0.03 0.06 0.07 0.05 0.04 0.05 0.09 0.13 0.12 0.17 0.21 0.15 0.06 0.03 0.02 0.02 0.01 0.01 0.01 0.01 0.01 0.01 0.01 0.02 0.01 0.01 0.02 0.03 0.04 0.05 0.04 0.03 0.03 0.01 0.01 0.01 0.01 0.01 0.01 0.02 0.03 0.02 0.03
0.04 0.12 0.17 0.22 0.26 0.10 0.03 0.01 0.02 0.04 0.05 0.06 0.08 0.04 0.01 0.02 0.05 0.09 0.08 0.25 0.35 0.26 0.09 0.05 0.05 0.04 0.03 0.02 0.02 0.02 0.02 0.02 0.02 0.03 0.04 0.06 0.06 0.06 0.07 0.07 0.05 0.04 0.05 0.08 0.06 0.04 0.03 0.03 0.04 0.06 0.06 0.06 0.06 0.06
0.04 0.03 0.03 0.08 0.09 0.11 0.10 0.09 0.08 0.12 0.15 0.09 0.05 0.01 0.01 0.02 0.04 0.03 0.08 0.40 0.41 0.25 0.07 0.04 0.04 0.06 0.07 0.09 0.11 0.13 0.13 0.14 0.15 0.13 0.10 0.09 0.11 0.08 0.07 0.06 0.08 0.06 0.09 0.12 0.11 0.13 0.15 0.15 0.15 0.16 0.16 0.14 0.12 0.12
0.14 0.18 0.12 0.13 0.07 0.07 0.10 0.04 0.05 0.06 0.02 0.00 0.01 0.01 0.02 0.04 0.04 0.10 0.36 0.70 0.41 0.10 0.03 0.02 0.01 0.02 0.02 0.06 0.10 0.11 0.11 0.12 0.12 0.09 0.07 0.08 0.09 0.08 0.06 0.05 0.09 0.07 0.03 0.06 0.11 0.16 0.19 0.23 0.24 0.25 0.26 0.25 0.24 0.21
0.12 0.05 0.01 0.02 0.02 0.03 0.05 0.02 0.02 0.02 0.05 0.08 0.10 0.05 0.07 0.09 0.22 0.48 0.38 0.40 0.15 0.02 0.01 0.01 0.01 0.02 0.03 0.03 0.04 0.06 0.06 0.06 0.08 0.08 0.05 0.05 0.07 0.08 0.05 0.06 0.07 0.06 0.02 0.02 0.04 0.07 0.11 0.14 0.17 0.20 0.23 0.25 0.23 0.23
0.14 0.04 0.02 0.02 0.05 0.05 0.07 0.11 0.20 0.29 0.29 0.16 0.07 0.10 0.17 0.28 0.33 0.22 0.11 0.05 0.01 0.00 0.00 0.00 0.01 0.01 0.02 0.02 0.04 0.06 0.06 0.05 0.05 0.05 0.05 0.09 0.13 0.09 0.06 0.05 0.04 0.03 0.03 0.03 0.02 0.03 0.04 0.06 0.08 0.12 0.16 0.17 0.21 0.26
0.07 0.02 0.02 0.04 0.05 0.08 0.26 0.25 0.22 0.25 0.14 0.06 0.09 0.08 0.11 0.17 0.13 0.08 0.04 0.01 0.00 0.00 0.01 0.01 0.01 0.01 0.02 0.03 0.04 0.07 0.09 0.07 0.10 0.10 0.11 0.19 0.19 0.10 0.06 0.04 0.02 0.01 0.02 0.03 0.03 0.02 0.01 0.01 0.01 0.03 0.07 0.09 0.13 0.17
0.05 0.04 0.06 0.09 0.09 0.11 0.19 0.09 0.10 0.07 0.02 0.03 0.05 0.04 0.18 0.29 0.17 0.06 0.02 0.01 0.01 0.03 0.03 0.03 0.04 0.05 0.05 0.05 0.06 0.09 0.14 0.11 0.14 0.16 0.17 0.20 0.16 0.10 0.05 0.03 0.02 0.02 0.02 0.03 0.03 0.03 0.02 0.02 0.03 0.04 0.05 0.07 0.08 0.09
0.05 0.05 0.08 0.07 0.04 0.02 0.02 0.03 0.02 0.01 0.00 0.01 0.03 0.06 0.22 0.36 0.22 0.10 0.03 0.02 0.01 0.01 0.02 0.02 0.03 0.05 0.07 0.09 0.10 0.11 0.13 0.10 0.11 0.12 0.12 0.13 0.09 0.05 0.03 0.02 0.03 0.03 0.03 0.02 0.02 0.02 0.02 0.03 0.03 0.03 0.05 0.05 0.06 0.05
0.03 0.04 0.04 0.03 0.02 0.01 0.05 0.05 0.01 0.00 0.00 0.00 0.00 0.03 0.21 0.47 0.48 0.18 0.09 0.03 0.02 0.03 0.05 0.06 0.07 0.08 0.10 0.15 0.13 0.14 0.16 0.12 0.08 0.08 0.07 0.05 0.03 0.02 0.02 0.05 0.06 0.06 0.03 0.03 0.03 0.03 0.04 0.04 0.04 0.04 0.04 0.05 0.05 0.06
0.00 0.01 0.03 0.07 0.05 0.03 0.02 0.01 0.00 0.00 0.00 0.01 0.07 0.17 0.29 0.40 0.36 0.25 0.13 0.07 0.08 0.09 0.09 0.09 0.08 0.09 0.08 0.10 0.07 0.05 0.06 0.10 0.11 0.07 0.02 0.02 0.02 0.03 0.06 0.10 0.11 0.08 0.05 0.05 0.05 0.05 0.05 0.05 0.05 0.05 0.06 0.06 0.07 0.07

GFSWCAN_prec_precacc24_183.txt.gz
Total_Precipitation_Accumulation
0.32 0.29 0.27 0.29 0.31 0.27 0.20 0.21 0.19 0.19 0.14 0.13 0.24 0.58 0.52 0.25 0.18 0.18 0.06 0.08 0.12 0.10 0.02 0.03 0.03 0.01 0.02 0.09 0.18 0.23 0.21 0.23 0.45 0.71 0.71 0.53 0.36 0.20 0.08 0.04 0.08 0.21 0.36 0.39 0.57 0.70 0.36 0.10 0.13 0.17 0.14 0.05 0.03 0.02
0.28 0.34 0.37 0.32 0.28 0.31 0.28 0.22 0.25 0.19 0.21 0.14 0.14 0.18 0.53 0.66 0.28 0.26 0.10 0.09 0.16 0.18 0.07 0.05 0.02 0.01 0.01 0.01 0.05 0.12 0.16 0.16 0.37 0.59 0.68 0.54 0.43 0.28 0.18 0.16 0.11 0.14 0.19 0.29 0.31 0.38 0.31 0.20 0.08 0.02 0.01 0.01 0.00 0.01
0.20 0.23 0.25 0.29 0.30 0.30 0.32 0.27 0.27 0.27 0.19 0.17 0.17 0.18 0.24 0.45 0.52 0.32 0.09 0.15 0.23 0.17 0.05 0.00 0.00 0.00 0.00 0.00 0.00 0.03 0.06 0.10 0.15 0.22 0.26 0.24 0.23 0.20 0.16 0.13 0.12 0.11 0.13 0.33 0.23 0.08 0.18 0.20 0.12 0.05 0.02 0.01 0.01 0.01
0.16 0.20 0.23 0.23 0.23 0.30 0.36 0.31 0.28 0.31 0.19 0.18 0.22 0.24 0.25 0.25 0.37 0.44 0.22 0.11 0.16 0.15 0.10 0.01 0.00 0.00 0.00 0.00 0.00 0.01 0.00 0.02 0.09 0.26 0.48 0.40 0.21 0.10 0.06 0.08 0.13 0.10 0.09 0.08 0.11 0.07 0.16 0.30 0.13 0.05 0.04 0.05 0.01 0.00
0.20 0.15 0.17 0.21 0.21 0.23 0.36 0.38 0.29 0.35 0.24 0.21 0.26 0.29 0.30 0.30 0.39 0.59 0.35 0.18 0.15 0.23 0.20 0.06 0.01 0.00 0.00 0.01 0.00 0.00 0.02 0.05 0.11 0.21 0.28 0.19 0.12 0.13 0.07 0.04 0.02 0.01 0.03 0.22 0.30 0.21 0.24 0.20 0.18 0.32 0.16 0.08 0.02 0.03
0.13 0.18 0.21 0.22 0.20 0.22 0.35 0.43 0.38 0.33 0.25 0.27 0.26 0.33 0.36 0.38 0.60 0.62 0.89 0.30 0.10 0.21 0.30 0.08 0.03 0.02 0.02 0.11 0.06 0.05 0.07 0.10 0.14 0.14 0.13 0.07 0.03 0.05 0.02 0.01 0.00 0.00 0.00 0.00 0.00 0.00 0.06 0.18 0.07 0.05 0.07 0.04 0.03 0.03
0.13 0.19 0.25 0.26 0.28 0.31 0.34 0.44 0.43 0.31 0.26 0.29 0.23 0.34 0.39 0.40 0.34 0.31 0.22 0.17 0.04 0.18 0.37 0.18 0.06 0.07 0.09 0.26 0.24 0.14 0.08 0.14 0.20 0.20 0.12 0.06 0.03 0.11 0.04 0.00 0.00 0.00 0.00 0.00 0.00 0.00 0.00 0.01 0.01 0.00 0.00 0.00 0.00 0.00
0.16 0.20 0.25 0.29 0.29 0.23 0.28 0.34 0.35 0.29 0.18 0.21 0.22 0.37 0.54 0.49 0.38 0.23 0.06 0.15 0.31 0.38 0.25 0.22 0.17 0.22 0.21 0.40 0.40 0.28 0.25 0.24 0.21 0.16 0.13 0.09 0.06 0.09 0.06 0.00 0.00 0.00 0.00 0.00 0.00 0.00 0.00 0.00 0.00 0.00 0.00 0.00 0.00 0.00
0.10 0.10 0.12 0.13 0.11 0.12 0.13 0.20 0.35 0.23 0.17 0.23 0.27 0.38 0.55 0.46 0.40 0.19 0.05 0.11 0.28 0.86 0.73 0.28 0.16 0.31 0.37 0.48 0.53 0.47 0.44 0.38 0.18 0.11 0.04 0.09 0.10 0.07 0.00 0.00 0.00 0.00 0.00 0.00 0.00 0.00 0.00 0.00 0.00 0.00 0.00 0.00 0.00 0.00
0.21 0.14 0.09 0.07 0.07 0.11 0.15 0.32 0.29 0.13 0.13 0.12 0.09 0.16 0.30 0.26 0.15 0.10 0.16 0.28 0.32 0.35 0.36 0.21 0.14 0.30 0.36 0.55 0.68 0.54 0.47 0.35 0.21 0.10 0.05 0.06 0.01 0.00 0.00 0.00 0.00 0.00 0.00 0.00 0.00 0.00 0.00 0.00 0.00 0.00 0.00 0.00 0.00 0.00
0.16 0.18 0.19 0.12 0.12 0.18 0.26 0.26 0.12 0.08 0.08 0.04 0.04 0.09 0.10 0.06 0.12 0.19 0.35 0.27 0.20 0.14 0.06 0.02 0.07 0.18 0.39 0.47 0.40 0.48 0.46 0.41 0.30 0.12 0.07 0.06 0.01 0.00 0.00 0.00 0.00 0.00 0.00 0.00 0.01 0.00 0.00 0.00 0.00 0.01 0.00 0.00 0.00 0.00
0.08 0.10 0.11 0.14 0.15 0.16 0.15 0.11 0.07 0.06 0.02 0.02 0.03 0.11 0.29 0.34 0.25 0.19 0.21 0.19 0.09 0.02 0.01 0.03 0.03 0.06 0.15 0.29 0.40 0.26 0.21 0.15 0.17 0.27 0.30 0.10 0.04 0.12 0.16 0.08 0.00 0.00 0.00 0.00 0.01 0.02 0.00 0.01 0.01 0.00 0.00 0.00 0.00 0.00
0.05 0.05 0.06 0.06 0.06 0.05 0.04 0.02 0.01 0.00 0.03 0.16 0.24 0.23 0.25 0.25 0.27 0.07 0.04 0.03 0.02 0.01 0.03 0.07 0.20 0.24 0.15 0.16 0.38 0.21 0.18 0.10 0.07 0.24 0.36 0.28 0.24 0.05 0.01 0.03 0.01 0.00 0.00 0.01 0.01 0.10 0.04 0.00 0.00 0.00 0.00 0.00 0.00 0.00
0.03 0.03 0.02 0.03 0.03 0.04 0.03 0.02 0.01 0.05 0.12 0.15 0.15 0.16 0.13 0.11 0.06 0.05 0.04 0.05 0.04 0.04 0.04 0.10 0.31 0.46 0.43 0.50 0.27 0.31 0.20 0.10 0.16 0.16 0.42 0.40 0.05 0.06 0.05 0.06 0.01 0.00 0.00 0.01 0.02 0.04 0.07 0.03 0.00 0.00 0.00 0.00 0.00 0.00
0.01 0.01 0.01 0.02 0.03 0.04 0.04 0.03 0.07 0.07 0.05 0.09 0.08 0.08 0.06 0.04 0.08 0.07 0.07 0.07 0.03 0.04 0.09 0.25 0.26 0.32 0.46 0.42 0.13 0.14 0.11 0.16 0.22 0.15 0.61 0.09 0.02 0.07 0.11 0.05 0.03 0.02 0.02 0.02 0.02 0.05 0.01 0.00 0.00 0.00 0.00 0.00 0.00 0.00
0.00 0.01 0.02 0.01 0.00 0.01 0.01 0.02 0.03 0.03 0.05 0.05 0.04 0.02 0.03 0.06 0.11 0.14 0.07 0.06 0.14 0.18 0.24 0.31 0.40 0.44 0.33 0.16 0.16 0.08 0.08 0.15 0.25 0.06 0.04 0.00 0.00 0.00 0.00 0.02 0.01 0.01 0.00 0.00 0.00 0.00 0.01 0.00 0.00 0.00 0.00 0.00 0.01 0.01
0.00 0.02 0.00 0.01 0.01 0.01 0.01 0.03 0.06 0.07 0.02 0.01 0.01 0.04 0.04 0.03 0.02 0.04 0.03 0.04 0.08 0.21 0.44 0.34 0.58 0.38 0.32 0.24 0.27 0.05 0.20 0.48 0.11 0.00 0.00 0.00 0.00 0.00 0.00 0.00 0.00 0.00 0.00 0.00 0.00 0.00 0.00 0.00 0.00 0.00 0.00 0.00 0.03 0.09
0.01 0.04 0.00 0.00 0.01 0.04 0.03 0.04 0.05 0.03 0.01 0.00 0.01 0.04 0.03 0.01 0.01 0.02 0.05 0.05 0.03 0.07 0.14 0.18 0.09 0.04 0.07 0.09 0.23 0.32 0.33 0.25 0.07 0.00 0.00 0.00 0.00 0.00 0.00 0.00 0.00 0.00 0.00 0.00 0.00 0.00 0.01 0.00 0.01 0.01 0.01 0.02 0.02 0.03
0.01 0.03 0.00 0.00 0.01 0.03 0.04 0.03 0.02 0.02 0.00 0.00 0.01 0.01 0.00 0.00 0.00 0.00 0.01 0.01 0.01 0.01 0.02 0.01 0.03 0.06 0.12 0.21 0.29 0.14 0.11 0.06 0.01 0.00 0.00 0.00 0.00 0.00 0.00 0.00 0.00 0.00 0.00 0.00 0.00 0.01 0.01 0.01 0.01 0.01 0.01 0.01 0.01 0.02
0.00 0.00 0.00 0.01 0.02 0.06 0.04 0.05 0.04 0.03 0.00 0.02 0.01 0.00 0.00 0.00 0.00 0.01 0.01 0.01 0.01 0.04 0.03 0.03 0.03 0.04 0.05 0.05 0.01 0.00 0.00 0.00 0.00 0.01 0.03 0.03 0.02 0.02 0.01 0.00 0.00 0.00 0.01 0.02 0.03 0.02 0.01 0.01 0.01 0.01 0.01 0.02 0.02 0.03
0.00 0.00 0.01 0.03 0.05 0.05 0.04 0.04 0.05 0.04 0.02 0.01 0.00 0.01 0.01 0.02 0.01 0.02 0.02 0.04 0.09 0.06 0.06 0.09 0.13 0.13 0.07 0.01 0.00 0.00 0.00 0.00 0.00 0.01 0.02 0.04 0.05 0.06 0.06 0.05 0.04 0.02 0.03 0.03 0.03 0.02 0.01 0.01 0.01 0.01 0.02 0.03 0.02 0.02
0.05 0.06 0.09 0.07 0.09 0.08 0.04 0.01 0.01 0.02 0.01 0.00 0.00 0.01 0.02 0.03 0.04 0.08 0.11 0.14 0.11 0.11 0.17 0.13 0.05 0.01 0.00 0.00 0.00 0.00 0.00 0.00 0.00 0.00 0.00 0.01 0.01 0.02 0.03 0.04 0.06 0.05 0.06 0.04 0.03 0.01 0.00 0.00 0.00 0.01 0.01 0.02 0.02 0.01
0.04 0.08 0.12 0.13 0.13 0.07 0.02 0.01 0.06 0.02 0.02 0.03 0.06 0.08 0.06 0.08 0.06 0.08 0.12 0.13 0.19 0.22 0.17 0.08 0.05 0.03 0.03 0.01 0.01 0.01 0.01 0.01 0.01 0.02 0.02 0.01 0.01 0.02 0.05 0.06 0.08 0.08 0.09 0.10 0.07 0.05 0.04 0.02 0.01 0.01 0.02 0.03 0.03 0.04
0.04 0.12 0.19 0.25 0.38 0.19 0.08 0.02 0.02 0.05 0.07 0.10 0.13 0.09 0.04 0.03 0.05 0.07 0.07 0.26 0.36 0.26 0.09 0.05 0.05 0.04 0.03 0.02 0.02 0.02 0.02 0.02 0.02 0.03 0.04 0.06 0.06 0.07 0.09 0.10 0.09 0.08 0.09 0.11 0.08 0.06 0.04 0.03 0.04 0.06 0.06 0.07 0.06 0.06
0.05 0.06 0.07 0.08 0.10 0.10 0.11 0.10 0.09 0.16 0.24 0.13 0.05 0.02 0.02 0.01 0.03 0.03 0.09 0.41 0.42 0.25 0.08 0.03 0.03 0.05 0.06 0.06 0.07 0.09 0.11 0.13 0.14 0.13 0.10 0.09 0.11 0.07 0.06 0.08 0.10 0.08 0.09 0.10 0.10 0.12 0.14 0.14 0.14 0.15 0.16 0.13 0.12 0.11
0.15 0.18 0.12 0.13 0.06 0.06 0.11 0.04 0.05 0.06 0.02 0.00 0.01 0.01 0.02 0.04 0.04 0.14 0.38 0.69 0.40 0.10 0.04 0.03 0.02 0.01 0.01 0.03 0.05 0.06 0.08 0.10 0.12 0.09 0.08 0.09 0.10 0.10 0.08 0.07 0.11 0.08 0.03 0.05 0.09 0.14 0.17 0.19 0.21 0.23 0.23 0.22 0.22 0.19
0.12 0.05 0.01 0.02 0.02 0.03 0.05 0.02 0.02 0.02 0.07 0.11 0.12 0.06 0.08 0.13 0.29 0.53 0.37 0.37 0.16 0.03 0.01 0.02 0.02 0.03 0.03 0.02 0.03 0.04 0.05 0.06 0.09 0.10 0.08 0.09 0.11 0.13 0.08 0.08 0.09 0.08 0.04 0.03 0.04 0.07 0.10 0.12 0.15 0.18 0.20 0.23 0.22 0.22
0.14 0.04 0.02 0.02 0.05 0.05 0.07 0.12 0.21 0.31 0.31 0.18 0.08 0.14 0.26 0.38 0.43 0.28 0.14 0.07 0.03 0.01 0.00 0.00 0.01 0.01 0.03 0.03 0.05 0.05 0.06 0.05 0.05 0.05 0.07 0.11 0.16 0.12 0.09 0.07 0.07 0.04 0.03 0.03 0.02 0.03 0.04 0.05 0.08 0.11 0.14 0.16 0.19 0.23
0.07 0.02 0.02 0.04 0.05 0.08 0.26 0.26 0.23 0.26 0.15 0.07 0.13 0.14 0.21 0.23 0.19 0.13 0.07 0.03 0.01 0.01 0.02 0.02 0.01 0.01 0.01 0.02 0.03 0.06 0.09 0.07 0.09 0.10 0.10 0.19 0.19 0.10 0.06 0.05 0.03 0.01 0.02 0.03 0.03 0.02 0.01 0.01 0.01 0.03 0.06 0.08 0.12 0.16
0.05 0.04 0.06 0.09 0.09 0.11 0.19 0.09 0.10 0.07 0.02 0.03 0.06 0.07 0.28 0.33 0.22 0.09 0.03 0.02 0.02 0.04 0.06 0.05 0.06 0.05 0.04 0.04 0.04 0.06 0.12 0.10 0.14 0.17 0.18 0.21 0.17 0.11 0.05 0.04 0.03 0.02 0.02 0.03 0.02 0.02 0.01 0.02 0.02 0.03 0.04 0.06 0.07 0.08
0.05 0.05 0.07 0.07 0.04 0.02 0.02 0.03 0.02 0.01 0.00 0.01 0.03 0.08 0.30 0.41 0.25 0.11 0.04 0.03 0.02 0.02 0.03 0.04 0.04 0.05 0.07 0.09 0.10 0.10 0.12 0.09 0.10 0.11 0.12 0.14 0.10 0.05 0.03 0.03 0.03 0.04 0.04 0.02 0.02 0.02 0.02 0.03 0.03 0.03 0.04 0.05 0.06 0.05
0.03 0.04 0.04 0.03 0.02 0.01 0.05 0.05 0.01 0.00 0.00 0.00 0.01 0.05 0.28 0.53 0.51 0.20 0.11 0.03 0.02 0.03 0.05 0.07 0.09 0.09 0.11 0.15 0.13 0.15 0.17 0.13 0.09 0.08 0.06 0.06 0.04 0.02 0.02 0.05 0.06 0.07 0.04 0.03 0.03 0.03 0.03 0.04 0.04 0.04 0.04 0.05 0.04 0.05
0.00 0.01 0.02 0.07 0.05 0.03 0.02 0.01 0.00 0.00 0.00 0.04 0.10 0.21 0.36 0.43 0.39 0.29 0.15 0.08 0.08 0.10 0.10 0.10 0.09 0.09 0.09 0.11 0.08 0.05 0.05 0.09 0.11 0.07 0.02 0.02 0.03 0.03 0.06 0.09 0.10 0.07 0.04 0.04 0.04 0.04 0.04 0.04 0.05 0.04 0.04 0.04 0.05 0.06